| time (UTC) | temp F | wind direction | speed MPH | gust MPH | rain 1hr in | rain 24hr in | rain mn in | humidity % | barometer mb |
| 20260903174603 | 90 | 2 | 2.0 | 7.0 | 0.00 | 0.00 | 0.00 | 55 | 1014.6 |
| 20260903174403 | 90 | 2 | 2.0 | 7.0 | 0.00 | 0.00 | 0.00 | 56 | 1014.6 |
| 20260903174203 | 90 | 4 | 2.0 | 9.0 | 0.00 | 0.00 | 0.00 | 55 | 1014.6 |
| 20260903174003 | 90 | 5 | 3.0 | 9.0 | 0.00 | 0.00 | 0.00 | 54 | 1014.6 |
| 20260903173803 | 90 | 5 | 4.0 | 9.0 | 0.00 | 0.00 | 0.00 | 55 | 1014.5 |
| 20260903173603 | 90 | 5 | 4.0 | 10.0 | 0.00 | 0.00 | 0.00 | 54 | 1014.6 |
| 20260903173403 | 90 | 8 | 5.0 | 10.0 | 0.00 | 0.00 | 0.00 | 55 | 1014.5 |
| 20260903173203 | 90 | 9 | 5.0 | 10.0 | 0.00 | 0.00 | 0.00 | 53 | 1014.5 |
| 20260903173003 | 90 | 15 | 5.0 | 10.0 | 0.00 | 0.00 | 0.00 | 54 | 1014.5 |
| 20260903172803 | 90 | 20 | 4.0 | 10.0 | 0.00 | 0.00 | 0.00 | 54 | 1014.3 |
| 20260903172603 | 90 | 23 | 4.0 | 8.0 | 0.00 | 0.00 | 0.00 | 55 | 1014.3 |
| 20260903172424 | 90 | 22 | 4.0 | 8.0 | 0.00 | 0.00 | 0.00 | 56 | 1014.3 |
| 20260903172203 | 90 | 20 | 4.0 | 8.0 | 0.00 | 0.00 | 0.00 | 55 | 1014.2 |
| 20260903172003 | 90 | 16 | 4.0 | 8.0 | 0.00 | 0.00 | 0.00 | 55 | 1014.2 |
| 20260903171803 | 90 | 14 | 4.0 | 8.0 | 0.00 | 0.00 | 0.00 | 56 | 1014.2 |
| 20260903171603 | 90 | 13 | 4.0 | 8.0 | 0.00 | 0.00 | 0.00 | 57 | 1014.1 |
| 20260903171424 | 90 | 10 | 4.0 | 9.0 | 0.00 | 0.00 | 0.00 | 55 | 1014.1 |
| 20260903171203 | 90 | 13 | 3.0 | 9.0 | 0.00 | 0.00 | 0.00 | 55 | 1014.0 |
| 20260903171024 | 90 | 11 | 3.0 | 9.0 | 0.00 | 0.00 | 0.00 | 55 | 1014.0 |
| 20260903170824 | 90 | 5 | 3.0 | 9.0 | 0.00 | 0.00 | 0.00 | 55 | 1014.0 |
| 20260903170603 | 90 | 5 | 4.0 | 9.0 | 0.00 | 0.00 | 0.00 | 53 | 1013.9 |
| 20260903170403 | 90 | 1 | 4.0 | 9.0 | 0.00 | 0.00 | 0.00 | 54 | 1013.9 |
| 20260903170203 | 90 | 354 | 4.0 | 9.0 | 0.00 | 0.00 | 0.00 | 55 | 1013.9 |
| 20260903170003 | 90 | 349 | 5.0 | 11.0 | 0.00 | 0.00 | 0.00 | 53 | 1013.9 |
| 20260903165824 | 90 | 351 | 5.0 | 11.0 | 0.00 | 0.00 | 0.00 | 51 | 1013.9 |
| 20260903165604 | 90 | 348 | 4.0 | 11.0 | 0.00 | 0.00 | 0.00 | 53 | 1013.9 |
| 20260903165404 | 90 | 352 | 4.0 | 11.0 | 0.00 | 0.00 | 0.00 | 54 | 1013.8 |
| 20260903165203 | 90 | 354 | 4.0 | 11.0 | 0.00 | 0.00 | 0.00 | 53 | 1013.8 |
| 20260903165003 | 90 | 351 | 4.0 | 8.0 | 0.00 | 0.00 | 0.00 | 55 | 1013.8 |
| 20260903164825 | 90 | 345 | 4.0 | 8.0 | 0.00 | 0.00 | 0.00 | 55 | 1013.9 |
| 20260903164603 | 90 | 335 | 4.0 | 11.0 | 0.00 | 0.00 | 0.00 | 55 | 1013.9 |
| 20260903164403 | 89 | 329 | 5.0 | 11.0 | 0.00 | 0.00 | 0.00 | 53 | 1013.8 |
| 20260903164203 | 89 | 326 | 5.0 | 11.0 | 0.00 | 0.00 | 0.00 | 53 | 1013.9 |
| 20260903164003 | 89 | 322 | 5.0 | 11.0 | 0.00 | 0.00 | 0.00 | 52 | 1014.0 |
| 20260903163803 | 89 | 320 | 5.0 | 11.0 | 0.00 | 0.00 | 0.00 | 53 | 1014.0 |
| 20260903163603 | 89 | 319 | 5.0 | 9.0 | 0.00 | 0.00 | 0.00 | 54 | 1014.0 |
| 20260903163403 | 89 | 319 | 5.0 | 9.0 | 0.00 | 0.00 | 0.00 | 52 | 1014.0 |
| 20260903163203 | 89 | 319 | 4.0 | 9.0 | 0.00 | 0.00 | 0.00 | 55 | 1014.1 |
| 20260903163024 | 89 | 325 | 4.0 | 8.0 | 0.00 | 0.00 | 0.00 | 56 | 1014.1 |
| 20260903162804 | 88 | 327 | 3.0 | 10.0 | 0.00 | 0.00 | 0.00 | 56 | 1014.1 |
| 20260903162603 | 88 | 335 | 4.0 | 10.0 | 0.00 | 0.00 | 0.00 | 57 | 1014.1 |
| 20260903162403 | 88 | 335 | 3.0 | 10.0 | 0.00 | 0.00 | 0.00 | 58 | 1014.1 |
| 20260903162203 | 88 | 335 | 3.0 | 10.0 | 0.00 | 0.00 | 0.00 | 57 | 1014.2 |
| 20260903162003 | 88 | 335 | 3.0 | 10.0 | 0.00 | 0.00 | 0.00 | 56 | 1014.2 |
| 20260903161824 | 87 | 338 | 3.0 | 7.0 | 0.00 | 0.00 | 0.00 | 57 | 1014.2 |
| 20260903161603 | 87 | 326 | 3.0 | 7.0 | 0.00 | 0.00 | 0.00 | 58 | 1014.2 |
| 20260903161403 | 87 | 321 | 3.0 | 7.0 | 0.00 | 0.00 | 0.00 | 58 | 1014.4 |
| 20260903161203 | 87 | 318 | 3.0 | 9.0 | 0.00 | 0.00 | 0.00 | 57 | 1014.4 |
| 20260903161003 | 87 | 312 | 4.0 | 10.0 | 0.00 | 0.00 | 0.00 | 57 | 1014.5 |
| 20260903160803 | 87 | 313 | 4.0 | 10.0 | 0.00 | 0.00 | 0.00 | 58 | 1014.5 |
| 20260903160603 | 86 | 313 | 5.0 | 10.0 | 0.00 | 0.00 | 0.00 | 58 | 1014.5 |
| 20260903160424 | 86 | 312 | 5.0 | 10.0 | 0.00 | 0.00 | 0.00 | 57 | 1014.5 |
| 20260903160203 | 86 | 309 | 4.0 | 10.0 | 0.00 | 0.00 | 0.00 | 58 | 1014.6 |
| 20260903160003 | 86 | 312 | 4.0 | 8.0 | 0.00 | 0.00 | 0.00 | 57 | 1014.6 |
| 20260903155803 | 86 | 314 | 4.0 | 7.0 | 0.00 | 0.00 | 0.00 | 58 | 1014.6 |
| 20260903155603 | 86 | 316 | 4.0 | 7.0 | 0.00 | 0.00 | 0.00 | 58 | 1014.7 |
| 20260903155403 | 86 | 313 | 3.0 | 7.0 | 0.00 | 0.00 | 0.00 | 58 | 1014.8 |
| 20260903155203 | 86 | 318 | 4.0 | 7.0 | 0.00 | 0.00 | 0.00 | 59 | 1014.8 |
| 20260903155024 | 86 | 317 | 4.0 | 7.0 | 0.00 | 0.00 | 0.00 | 59 | 1014.8 |
| 20260903154803 | 85 | 311 | 4.0 | 7.0 | 0.00 | 0.00 | 0.00 | 58 | 1014.8 |
| 20260903154603 | 85 | 310 | 4.0 | 9.0 | 0.00 | 0.00 | 0.00 | 58 | 1014.8 |
| 20260903154424 | 85 | 312 | 4.0 | 9.0 | 0.00 | 0.00 | 0.00 | 61 | 1014.8 |
| 20260903154203 | 85 | 309 | 4.0 | 9.0 | 0.00 | 0.00 | 0.00 | 60 | 1014.8 |
| 20260903154003 | 85 | 309 | 4.0 | 9.0 | 0.00 | 0.00 | 0.00 | 59 | 1014.9 |
| 20260903153803 | 85 | 308 | 4.0 | 9.0 | 0.00 | 0.00 | 0.00 | 59 | 1014.9 |
| 20260903153603 | 85 | 306 | 4.0 | 7.0 | 0.00 | 0.00 | 0.00 | 60 | 1014.9 |
| 20260903153424 | 85 | 305 | 4.0 | 7.0 | 0.00 | 0.00 | 0.00 | 58 | 1014.9 |
| 20260903153203 | 85 | 302 | 4.0 | 7.0 | 0.00 | 0.00 | 0.00 | 60 | 1014.9 |
| 20260903153003 | 85 | 300 | 4.0 | 7.0 | 0.00 | 0.00 | 0.00 | 60 | 1014.9 |
| 20260903152803 | 85 | 298 | 4.0 | 6.0 | 0.00 | 0.00 | 0.00 | 60 | 1014.8 |
| 20260903152603 | 85 | 299 | 4.0 | 6.0 | 0.00 | 0.00 | 0.00 | 59 | 1014.9 |
| 20260903152403 | 85 | 301 | 4.0 | 6.0 | 0.00 | 0.00 | 0.00 | 59 | 1014.9 |
| 20260903152203 | 84 | 301 | 4.0 | 6.0 | 0.00 | 0.00 | 0.00 | 60 | 1015.0 |
| 20260903152003 | 84 | 302 | 4.0 | 6.0 | 0.00 | 0.00 | 0.00 | 60 | 1014.9 |
| 20260903151803 | 84 | 301 | 4.0 | 6.0 | 0.00 | 0.00 | 0.00 | 60 | 1015.0 |
| 20260903151624 | 84 | 303 | 4.0 | 6.0 | 0.00 | 0.00 | 0.00 | 60 | 1015.0 |
| 20260903151403 | 84 | 301 | 3.0 | 6.0 | 0.00 | 0.00 | 0.00 | 60 | 1015.1 |
| 20260903151203 | 84 | 301 | 3.0 | 6.0 | 0.00 | 0.00 | 0.00 | 59 | 1015.0 |
| 20260903151003 | 84 | 303 | 3.0 | 6.0 | 0.00 | 0.00 | 0.00 | 60 | 1015.0 |
| 20260903150803 | 84 | 306 | 3.0 | 6.0 | 0.00 | 0.00 | 0.00 | 60 | 1015.0 |
| 20260903150603 | 84 | 305 | 2.0 | 5.0 | 0.00 | 0.00 | 0.00 | 60 | 1015.0 |
| 20260903150403 | 84 | 306 | 2.0 | 5.0 | 0.00 | 0.00 | 0.00 | 60 | 1015.0 |
| 20260903150203 | 84 | 305 | 3.0 | 5.0 | 0.00 | 0.00 | 0.00 | 60 | 1015.0 |
| 20260903150003 | 83 | 305 | 3.0 | 5.0 | 0.00 | 0.00 | 0.00 | 60 | 1014.9 |
| 20260903145803 | 83 | 305 | 3.0 | 6.0 | 0.00 | 0.00 | 0.00 | 61 | 1014.9 |
| 20260903145603 | 83 | 303 | 4.0 | 6.0 | 0.00 | 0.00 | 0.00 | 61 | 1014.9 |
| 20260903145403 | 83 | 303 | 4.0 | 6.0 | 0.00 | 0.00 | 0.00 | 61 | 1014.9 |
| 20260903145203 | 83 | 303 | 4.0 | 8.0 | 0.00 | 0.00 | 0.00 | 61 | 1014.9 |
| 20260903145003 | 83 | 303 | 4.0 | 8.0 | 0.00 | 0.00 | 0.00 | 60 | 1014.9 |
| 20260903144803 | 83 | 303 | 4.0 | 8.0 | 0.00 | 0.00 | 0.00 | 60 | 1014.9 |
| 20260903144603 | 83 | 305 | 4.0 | 8.0 | 0.00 | 0.00 | 0.00 | 60 | 1014.8 |
| 20260903144404 | 83 | 307 | 3.0 | 8.0 | 0.00 | 0.00 | 0.00 | 60 | 1014.8 |
| 20260903144203 | 82 | 312 | 3.0 | 6.0 | 0.00 | 0.00 | 0.00 | 61 | 1014.8 |
| 20260903144003 | 82 | 311 | 3.0 | 6.0 | 0.00 | 0.00 | 0.00 | 61 | 1014.8 |
| 20260903143803 | 82 | 311 | 2.0 | 6.0 | 0.00 | 0.00 | 0.00 | 61 | 1014.9 |
| 20260903143603 | 82 | 309 | 2.0 | 6.0 | 0.00 | 0.00 | 0.00 | 62 | 1014.8 |
| 20260903143403 | 82 | 306 | 2.0 | 4.0 | 0.00 | 0.00 | 0.00 | 62 | 1014.8 |
| 20260903143204 | 82 | 303 | 2.0 | 5.0 | 0.00 | 0.00 | 0.00 | 61 | 1014.8 |
| 20260903143004 | 82 | 300 | 2.0 | 5.0 | 0.00 | 0.00 | 0.00 | 61 | 1014.8 |
| 20260903142824 | 82 | 299 | 3.0 | 5.0 | 0.00 | 0.00 | 0.00 | 62 | 1014.8 |
| 20260903142604 | 82 | 300 | 3.0 | 5.0 | 0.00 | 0.00 | 0.00 | 62 | 1014.8 |
| 20260903142403 | 81 | 301 | 3.0 | 5.0 | 0.00 | 0.00 | 0.00 | 62 | 1014.8 |
| 20260903142224 | 81 | 300 | 3.0 | 5.0 | 0.00 | 0.00 | 0.00 | 62 | 1014.8 |
| 20260903142024 | 81 | 302 | 3.0 | 5.0 | 0.00 | 0.00 | 0.00 | 62 | 1014.8 |
| 20260903141803 | 81 | 305 | 3.0 | 5.0 | 0.00 | 0.00 | 0.00 | 62 | 1014.8 |
| 20260903141603 | 81 | 303 | 2.0 | 5.0 | 0.00 | 0.00 | 0.00 | 63 | 1014.7 |
| 20260903141403 | 81 | 303 | 2.0 | 5.0 | 0.00 | 0.00 | 0.00 | 63 | 1014.7 |
| 20260903141203 | 81 | 305 | 2.0 | 5.0 | 0.00 | 0.00 | 0.00 | 63 | 1014.8 |
| 20260903141024 | 81 | 303 | 2.0 | 5.0 | 0.00 | 0.00 | 0.00 | 63 | 1014.8 |
| 20260903140803 | 81 | 299 | 2.0 | 5.0 | 0.00 | 0.00 | 0.00 | 63 | 1014.8 |
| 20260903140603 | 80 | 299 | 1.0 | 5.0 | 0.00 | 0.00 | 0.00 | 64 | 1014.8 |
| 20260903140403 | 80 | 298 | 1.0 | 4.0 | 0.00 | 0.00 | 0.00 | 64 | 1014.8 |
| 20260903140203 | 80 | 293 | 2.0 | 4.0 | 0.00 | 0.00 | 0.00 | 64 | 1014.8 |
| 20260903140003 | 80 | 298 | 2.0 | 4.0 | 0.00 | 0.00 | 0.00 | 64 | 1014.8 |
| 20260903135803 | 80 | 298 | 2.0 | 4.0 | 0.00 | 0.00 | 0.00 | 64 | 1014.8 |
| 20260903135624 | 80 | 299 | 2.0 | 4.0 | 0.00 | 0.00 | 0.00 | 65 | 1014.8 |
| 20260903135403 | 80 | 298 | 2.0 | 4.0 | 0.00 | 0.00 | 0.00 | 64 | 1014.8 |
| 20260903135203 | 80 | 301 | 1.0 | 4.0 | 0.00 | 0.00 | 0.00 | 65 | 1014.8 |
| 20260903135003 | 79 | 298 | 1.0 | 4.0 | 0.00 | 0.00 | 0.00 | 65 | 1014.8 |
| 20260903134824 | 79 | 301 | 0.0 | 4.0 | 0.00 | 0.00 | 0.00 | 65 | 1014.8 |
| 20260903134603 | 79 | 0 | 0.0 | 0.0 | 0.00 | 0.00 | 0.00 | 66 | 1014.8 |
| 20260903134403 | 79 | 0 | 0.0 | 0.0 | 0.00 | 0.00 | 0.00 | 67 | 1014.8 |
| 20260903134203 | 79 | 0 | 0.0 | 0.0 | 0.00 | 0.00 | 0.00 | 67 | 1014.8 |
| 20260903134003 | 79 | 0 | 0.0 | 0.0 | 0.00 | 0.00 | 0.00 | 67 | 1014.9 |
| 20260903133803 | 78 | 0 | 0.0 | 0.0 | 0.00 | 0.00 | 0.00 | 67 | 1014.9 |
| 20260903133603 | 78 | 0 | 0.0 | 0.0 | 0.00 | 0.00 | 0.00 | 67 | 1014.9 |
| 20260903133424 | 78 | 0 | 0.0 | 0.0 | 0.00 | 0.00 | 0.00 | 66 | 1015.0 |
| 20260903133203 | 78 | 0 | 0.0 | 0.0 | 0.00 | 0.00 | 0.00 | 67 | 1014.9 |
| 20260903133003 | 78 | 0 | 0.0 | 0.0 | 0.00 | 0.00 | 0.00 | 68 | 1015.1 |
| 20260903132803 | 78 | 0 | 0.0 | 0.0 | 0.00 | 0.00 | 0.00 | 68 | 1015.0 |
| 20260903132624 | 78 | 0 | 0.0 | 0.0 | 0.00 | 0.00 | 0.00 | 68 | 1015.0 |
| 20260903132403 | 78 | 0 | 0.0 | 0.0 | 0.00 | 0.00 | 0.00 | 68 | 1015.0 |
| 20260903132203 | 78 | 0 | 0.0 | 0.0 | 0.00 | 0.00 | 0.00 | 68 | 1015.1 |
| 20260903132003 | 78 | 0 | 0.0 | 0.0 | 0.00 | 0.00 | 0.00 | 68 | 1015.1 |
| 20260903131803 | 78 | 0 | 0.0 | 0.0 | 0.00 | 0.00 | 0.00 | 68 | 1015.1 |
| 20260903131603 | 78 | 0 | 0.0 | 0.0 | 0.00 | 0.00 | 0.00 | 68 | 1015.0 |
| 20260903131403 | 77 | 0 | 0.0 | 0.0 | 0.00 | 0.00 | 0.00 | 68 | 1015.0 |
| 20260903131203 | 77 | 0 | 0.0 | 0.0 | 0.00 | 0.00 | 0.00 | 68 | 1015.0 |
| 20260903131003 | 77 | 0 | 0.0 | 0.0 | 0.00 | 0.00 | 0.00 | 69 | 1015.0 |
| 20260903130803 | 77 | 0 | 0.0 | 0.0 | 0.00 | 0.00 | 0.00 | 68 | 1015.0 |
| 20260903130603 | 77 | 0 | 0.0 | 0.0 | 0.00 | 0.00 | 0.00 | 69 | 1015.0 |
| 20260903130403 | 77 | 0 | 0.0 | 0.0 | 0.00 | 0.00 | 0.00 | 69 | 1014.9 |
| 20260903130203 | 77 | 0 | 0.0 | 0.0 | 0.00 | 0.00 | 0.00 | 69 | 1014.9 |
| 20260903130003 | 77 | 0 | 0.0 | 0.0 | 0.00 | 0.00 | 0.00 | 69 | 1014.9 |
| 20260903125824 | 77 | 0 | 0.0 | 0.0 | 0.00 | 0.00 | 0.00 | 69 | 1014.9 |
| 20260903125603 | 77 | 0 | 0.0 | 0.0 | 0.00 | 0.00 | 0.00 | 69 | 1014.9 |
| 20260903125424 | 77 | 0 | 0.0 | 0.0 | 0.00 | 0.00 | 0.00 | 69 | 1014.9 |
| 20260903125203 | 77 | 291 | 0.0 | 1.0 | 0.00 | 0.00 | 0.00 | 69 | 1014.7 |
| 20260903125003 | 77 | 291 | 0.0 | 1.0 | 0.00 | 0.00 | 0.00 | 70 | 1014.7 |
| 20260903124803 | 77 | 291 | 0.0 | 1.0 | 0.00 | 0.00 | 0.00 | 70 | 1014.7 |
| 20260903124603 | 77 | 291 | 0.0 | 1.0 | 0.00 | 0.00 | 0.00 | 70 | 1014.7 |
| 20260903124403 | 77 | 291 | 0.0 | 1.0 | 0.00 | 0.00 | 0.00 | 70 | 1014.7 |
| 20260903124203 | 77 | 0 | 0.0 | 0.0 | 0.00 | 0.00 | 0.00 | 70 | 1014.8 |
| 20260903124003 | 77 | 0 | 0.0 | 0.0 | 0.00 | 0.00 | 0.00 | 70 | 1014.8 |
| 20260903123803 | 77 | 303 | 0.0 | 2.0 | 0.00 | 0.00 | 0.00 | 70 | 1014.8 |
| 20260903123603 | 77 | 303 | 1.0 | 3.0 | 0.00 | 0.00 | 0.00 | 70 | 1014.9 |
| 20260903123403 | 77 | 303 | 1.0 | 3.0 | 0.00 | 0.00 | 0.00 | 70 | 1014.9 |
| 20260903123203 | 77 | 303 | 1.0 | 3.0 | 0.00 | 0.00 | 0.00 | 70 | 1015.0 |
| 20260903123003 | 76 | 303 | 1.0 | 3.0 | 0.00 | 0.00 | 0.00 | 70 | 1015.1 |
| 20260903122803 | 76 | 303 | 0.0 | 3.0 | 0.00 | 0.00 | 0.00 | 70 | 1015.1 |
| 20260903122603 | 77 | 303 | 0.0 | 3.0 | 0.00 | 0.00 | 0.00 | 70 | 1015.1 |
| 20260903122403 | 77 | 0 | 0.0 | 0.0 | 0.00 | 0.00 | 0.00 | 70 | 1015.3 |
| 20260903122224 | 77 | 303 | 0.0 | 1.0 | 0.00 | 0.00 | 0.00 | 70 | 1015.3 |
| 20260903122003 | 77 | 303 | 0.0 | 1.0 | 0.00 | 0.00 | 0.00 | 70 | 1015.3 |
| 20260903121824 | 77 | 303 | 0.0 | 1.0 | 0.00 | 0.00 | 0.00 | 71 | 1015.3 |
| 20260903121624 | 76 | 303 | 0.0 | 3.0 | 0.00 | 0.00 | 0.00 | 71 | 1015.3 |
| 20260903121403 | 76 | 303 | 0.0 | 3.0 | 0.00 | 0.00 | 0.00 | 71 | 1015.3 |
| 20260903121224 | 76 | 303 | 0.0 | 3.0 | 0.00 | 0.00 | 0.00 | 71 | 1015.3 |
| 20260903121003 | 76 | 303 | 0.0 | 3.0 | 0.00 | 0.00 | 0.00 | 71 | 1015.3 |
| 20260903120803 | 76 | 302 | 0.0 | 3.0 | 0.00 | 0.00 | 0.00 | 71 | 1015.3 |
| 20260903120603 | 76 | 0 | 0.0 | 0.0 | 0.00 | 0.00 | 0.00 | 71 | 1015.2 |
| 20260903120403 | 76 | 0 | 0.0 | 0.0 | 0.00 | 0.00 | 0.00 | 71 | 1015.2 |
| 20260903120203 | 76 | 0 | 0.0 | 0.0 | 0.00 | 0.00 | 0.00 | 71 | 1015.2 |
| 20260903120003 | 76 | 0 | 0.0 | 0.0 | 0.00 | 0.00 | 0.00 | 71 | 1015.3 |
| 20260903115803 | 76 | 0 | 0.0 | 0.0 | 0.00 | 0.00 | 0.00 | 71 | 1015.2 |
| 20260903115603 | 76 | 0 | 0.0 | 0.0 | 0.00 | 0.00 | 0.00 | 71 | 1015.3 |
| 20260903115403 | 76 | 0 | 0.0 | 0.0 | 0.00 | 0.00 | 0.00 | 71 | 1015.2 |
| 20260903115224 | 76 | 0 | 0.0 | 0.0 | 0.00 | 0.00 | 0.00 | 71 | 1015.2 |
| 20260903115003 | 76 | 0 | 0.0 | 0.0 | 0.00 | 0.00 | 0.00 | 71 | 1015.1 |
| 20260903114803 | 76 | 0 | 0.0 | 0.0 | 0.00 | 0.00 | 0.00 | 71 | 1015.1 |
| 20260903114603 | 76 | 0 | 0.0 | 0.0 | 0.00 | 0.00 | 0.00 | 71 | 1015.1 |
| 20260903114403 | 75 | 0 | 0.0 | 0.0 | 0.00 | 0.00 | 0.00 | 71 | 1015.1 |
| 20260903114224 | 75 | 0 | 0.0 | 0.0 | 0.00 | 0.00 | 0.00 | 71 | 1015.1 |
| 20260903114004 | 75 | 0 | 0.0 | 0.0 | 0.00 | 0.00 | 0.00 | 72 | 1015.1 |
| 20260903113803 | 75 | 0 | 0.0 | 0.0 | 0.00 | 0.00 | 0.00 | 71 | 1015.1 |
| 20260903113603 | 75 | 0 | 0.0 | 0.0 | 0.00 | 0.00 | 0.00 | 71 | 1015.1 |
| 20260903113403 | 75 | 0 | 0.0 | 0.0 | 0.00 | 0.00 | 0.00 | 71 | 1015.0 |
| 20260903113204 | 75 | 0 | 0.0 | 0.0 | 0.00 | 0.00 | 0.00 | 71 | 1015.0 |
| 20260903113004 | 75 | 0 | 0.0 | 0.0 | 0.00 | 0.00 | 0.00 | 71 | 1015.0 |
| 20260903112803 | 75 | 0 | 0.0 | 0.0 | 0.00 | 0.00 | 0.00 | 71 | 1015.0 |
| 20260903112624 | 75 | 0 | 0.0 | 0.0 | 0.00 | 0.00 | 0.00 | 71 | 1014.9 |
| 20260903112403 | 75 | 0 | 0.0 | 0.0 | 0.00 | 0.00 | 0.00 | 71 | 1015.0 |
| 20260903112203 | 75 | 0 | 0.0 | 0.0 | 0.00 | 0.00 | 0.00 | 71 | 1015.0 |
| 20260903112024 | 75 | 0 | 0.0 | 0.0 | 0.00 | 0.00 | 0.00 | 71 | 1015.0 |
| 20260903111803 | 75 | 0 | 0.0 | 0.0 | 0.00 | 0.00 | 0.00 | 71 | 1014.9 |
| 20260903111603 | 75 | 0 | 0.0 | 0.0 | 0.00 | 0.00 | 0.00 | 71 | 1014.9 |
| 20260903111403 | 75 | 0 | 0.0 | 0.0 | 0.00 | 0.00 | 0.00 | 71 | 1014.9 |
| 20260903111203 | 75 | 0 | 0.0 | 0.0 | 0.00 | 0.00 | 0.00 | 71 | 1014.9 |
| 20260903111003 | 75 | 0 | 0.0 | 0.0 | 0.00 | 0.00 | 0.00 | 71 | 1014.9 |
| 20260903110803 | 75 | 0 | 0.0 | 0.0 | 0.00 | 0.00 | 0.00 | 71 | 1014.9 |
| 20260903110603 | 75 | 0 | 0.0 | 0.0 | 0.00 | 0.00 | 0.00 | 71 | 1014.9 |
| 20260903110403 | 75 | 0 | 0.0 | 0.0 | 0.00 | 0.00 | 0.00 | 71 | 1014.8 |
| 20260903110204 | 75 | 0 | 0.0 | 0.0 | 0.00 | 0.00 | 0.00 | 71 | 1014.8 |
| 20260903110004 | 75 | 0 | 0.0 | 0.0 | 0.00 | 0.00 | 0.00 | 70 | 1014.9 |
| 20260903105803 | 75 | 0 | 0.0 | 0.0 | 0.00 | 0.00 | 0.00 | 71 | 1014.8 |
| 20260903105603 | 75 | 0 | 0.0 | 0.0 | 0.00 | 0.00 | 0.00 | 70 | 1014.8 |
| 20260903105403 | 75 | 0 | 0.0 | 0.0 | 0.00 | 0.00 | 0.00 | 71 | 1014.8 |
| 20260903105204 | 75 | 0 | 0.0 | 0.0 | 0.00 | 0.00 | 0.00 | 71 | 1014.8 |
| 20260903105003 | 75 | 0 | 0.0 | 0.0 | 0.00 | 0.00 | 0.00 | 71 | 1014.8 |
| 20260903104806 | 75 | 0 | 0.0 | 0.0 | 0.00 | 0.00 | 0.00 | 71 | 1014.7 |
| 20260903104603 | 75 | 0 | 0.0 | 0.0 | 0.00 | 0.00 | 0.00 | 71 | 1014.7 |
| 20260903104403 | 75 | 0 | 0.0 | 0.0 | 0.00 | 0.00 | 0.00 | 71 | 1014.7 |
| 20260903104203 | 75 | 0 | 0.0 | 0.0 | 0.00 | 0.00 | 0.00 | 71 | 1014.7 |
| 20260903104004 | 75 | 0 | 0.0 | 0.0 | 0.00 | 0.00 | 0.00 | 71 | 1014.7 |
| 20260903103803 | 75 | 0 | 0.0 | 0.0 | 0.00 | 0.00 | 0.00 | 70 | 1014.7 |
| 20260903103624 | 76 | 0 | 0.0 | 0.0 | 0.00 | 0.00 | 0.00 | 70 | 1014.8 |
| 20260903103403 | 76 | 0 | 0.0 | 0.0 | 0.00 | 0.00 | 0.00 | 71 | 1014.8 |
| 20260903103224 | 76 | 0 | 0.0 | 0.0 | 0.00 | 0.00 | 0.00 | 71 | 1014.8 |
| 20260903103003 | 76 | 0 | 0.0 | 0.0 | 0.00 | 0.00 | 0.00 | 71 | 1014.8 |
| 20260903102803 | 75 | 0 | 0.0 | 0.0 | 0.00 | 0.00 | 0.00 | 71 | 1014.7 |
| 20260903102624 | 75 | 0 | 0.0 | 0.0 | 0.00 | 0.00 | 0.00 | 71 | 1014.7 |
| 20260903102403 | 75 | 0 | 0.0 | 0.0 | 0.00 | 0.00 | 0.00 | 71 | 1014.7 |
| 20260903102203 | 75 | 0 | 0.0 | 0.0 | 0.00 | 0.00 | 0.00 | 70 | 1014.7 |
| 20260903102024 | 75 | 0 | 0.0 | 0.0 | 0.00 | 0.00 | 0.00 | 70 | 1014.7 |
| 20260903101824 | 75 | 0 | 0.0 | 0.0 | 0.00 | 0.00 | 0.00 | 70 | 1014.7 |
| 20260903101603 | 75 | 0 | 0.0 | 0.0 | 0.00 | 0.00 | 0.00 | 70 | 1014.7 |
| 20260903101403 | 76 | 0 | 0.0 | 0.0 | 0.00 | 0.00 | 0.00 | 70 | 1014.7 |
| 20260903101203 | 76 | 0 | 0.0 | 0.0 | 0.00 | 0.00 | 0.00 | 70 | 1014.7 |
| 20260903101003 | 76 | 0 | 0.0 | 0.0 | 0.00 | 0.00 | 0.00 | 70 | 1014.7 |
| 20260903100803 | 76 | 0 | 0.0 | 0.0 | 0.00 | 0.00 | 0.00 | 70 | 1014.7 |
| 20260903100603 | 76 | 0 | 0.0 | 0.0 | 0.00 | 0.00 | 0.00 | 70 | 1014.7 |
| 20260903100403 | 76 | 0 | 0.0 | 0.0 | 0.00 | 0.00 | 0.00 | 70 | 1014.7 |
| 20260903100203 | 76 | 0 | 0.0 | 0.0 | 0.00 | 0.00 | 0.00 | 70 | 1014.7 |
| 20260903100003 | 76 | 0 | 0.0 | 0.0 | 0.00 | 0.00 | 0.00 | 70 | 1014.7 |
| 20260903095803 | 76 | 0 | 0.0 | 0.0 | 0.00 | 0.00 | 0.00 | 70 | 1014.7 |
| 20260903095603 | 76 | 0 | 0.0 | 0.0 | 0.00 | 0.00 | 0.00 | 70 | 1014.6 |
| 20260903095424 | 76 | 0 | 0.0 | 0.0 | 0.00 | 0.00 | 0.00 | 71 | 1014.6 |
| 20260903095203 | 76 | 0 | 0.0 | 0.0 | 0.00 | 0.00 | 0.00 | 71 | 1014.6 |
| 20260903095003 | 76 | 0 | 0.0 | 0.0 | 0.00 | 0.00 | 0.00 | 70 | 1014.6 |
| 20260903094803 | 76 | 0 | 0.0 | 0.0 | 0.00 | 0.00 | 0.00 | 70 | 1014.6 |
| 20260903094624 | 76 | 0 | 0.0 | 0.0 | 0.00 | 0.00 | 0.00 | 70 | 1014.7 |
| 20260903094403 | 76 | 0 | 0.0 | 0.0 | 0.00 | 0.00 | 0.00 | 70 | 1014.6 |
| 20260903094224 | 76 | 0 | 0.0 | 0.0 | 0.00 | 0.00 | 0.00 | 70 | 1014.6 |
| 20260903094003 | 76 | 0 | 0.0 | 0.0 | 0.00 | 0.00 | 0.00 | 70 | 1014.6 |
| 20260903093824 | 76 | 0 | 0.0 | 0.0 | 0.00 | 0.00 | 0.00 | 70 | 1014.6 |
| 20260903093603 | 76 | 0 | 0.0 | 0.0 | 0.00 | 0.00 | 0.00 | 70 | 1014.6 |
| 20260903093403 | 76 | 0 | 0.0 | 0.0 | 0.00 | 0.00 | 0.00 | 71 | 1014.5 |
| 20260903093224 | 76 | 0 | 0.0 | 0.0 | 0.00 | 0.00 | 0.00 | 70 | 1014.6 |
| 20260903093003 | 76 | 0 | 0.0 | 0.0 | 0.00 | 0.00 | 0.00 | 71 | 1014.5 |
| 20260903092824 | 76 | 0 | 0.0 | 0.0 | 0.00 | 0.00 | 0.00 | 71 | 1014.5 |
| 20260903092603 | 76 | 0 | 0.0 | 0.0 | 0.00 | 0.00 | 0.00 | 71 | 1014.4 |
| 20260903092403 | 76 | 0 | 0.0 | 0.0 | 0.00 | 0.00 | 0.00 | 71 | 1014.5 |
| 20260903092224 | 76 | 0 | 0.0 | 0.0 | 0.00 | 0.00 | 0.00 | 71 | 1014.5 |
| 20260903092025 | 76 | 0 | 0.0 | 0.0 | 0.00 | 0.00 | 0.00 | 70 | 1014.5 |
| 20260903091803 | 76 | 0 | 0.0 | 0.0 | 0.00 | 0.00 | 0.00 | 70 | 1014.5 |
| 20260903091624 | 76 | 0 | 0.0 | 0.0 | 0.00 | 0.00 | 0.00 | 69 | 1014.5 |
| 20260903091403 | 76 | 0 | 0.0 | 0.0 | 0.00 | 0.00 | 0.00 | 69 | 1014.4 |
| 20260903091203 | 76 | 0 | 0.0 | 0.0 | 0.00 | 0.00 | 0.00 | 69 | 1014.5 |
| 20260903091003 | 76 | 0 | 0.0 | 0.0 | 0.00 | 0.00 | 0.00 | 69 | 1014.4 |
| 20260903090803 | 76 | 0 | 0.0 | 0.0 | 0.00 | 0.00 | 0.00 | 69 | 1014.4 |
| 20260903090603 | 76 | 0 | 0.0 | 0.0 | 0.00 | 0.00 | 0.00 | 69 | 1014.4 |
| 20260903090403 | 76 | 0 | 0.0 | 0.0 | 0.00 | 0.00 | 0.00 | 69 | 1014.4 |
| 20260903090203 | 76 | 0 | 0.0 | 0.0 | 0.00 | 0.00 | 0.00 | 69 | 1014.5 |
| 20260903090003 | 76 | 0 | 0.0 | 0.0 | 0.00 | 0.00 | 0.00 | 69 | 1014.5 |
| 20260903085824 | 76 | 0 | 0.0 | 0.0 | 0.00 | 0.00 | 0.00 | 69 | 1014.5 |
| 20260903085603 | 76 | 0 | 0.0 | 0.0 | 0.00 | 0.00 | 0.00 | 69 | 1014.5 |
| 20260903085403 | 76 | 0 | 0.0 | 0.0 | 0.00 | 0.00 | 0.00 | 69 | 1014.5 |
| 20260903085203 | 76 | 0 | 0.0 | 0.0 | 0.00 | 0.00 | 0.00 | 69 | 1014.4 |
| 20260903085003 | 76 | 0 | 0.0 | 0.0 | 0.00 | 0.00 | 0.00 | 68 | 1014.4 |
| 20260903084803 | 76 | 0 | 0.0 | 0.0 | 0.00 | 0.00 | 0.00 | 68 | 1014.3 |
| 20260903084603 | 77 | 0 | 0.0 | 0.0 | 0.00 | 0.00 | 0.00 | 68 | 1014.4 |
| 20260903084403 | 77 | 0 | 0.0 | 0.0 | 0.00 | 0.00 | 0.00 | 68 | 1014.4 |
| 20260903084203 | 77 | 0 | 0.0 | 0.0 | 0.00 | 0.00 | 0.00 | 68 | 1014.3 |
| 20260903084024 | 77 | 0 | 0.0 | 0.0 | 0.00 | 0.00 | 0.00 | 68 | 1014.3 |
| 20260903083803 | 77 | 0 | 0.0 | 0.0 | 0.00 | 0.00 | 0.00 | 69 | 1014.3 |
| 20260903083603 | 77 | 0 | 0.0 | 0.0 | 0.00 | 0.00 | 0.00 | 69 | 1014.4 |
| 20260903083403 | 77 | 0 | 0.0 | 0.0 | 0.00 | 0.00 | 0.00 | 69 | 1014.3 |
| 20260903083203 | 77 | 0 | 0.0 | 0.0 | 0.00 | 0.00 | 0.00 | 69 | 1014.4 |
| 20260903083003 | 77 | 0 | 0.0 | 0.0 | 0.00 | 0.00 | 0.00 | 69 | 1014.3 |
| 20260903082803 | 77 | 0 | 0.0 | 0.0 | 0.00 | 0.00 | 0.00 | 69 | 1014.4 |
| 20260903082603 | 77 | 0 | 0.0 | 0.0 | 0.00 | 0.00 | 0.00 | 69 | 1014.4 |
| 20260903082424 | 77 | 0 | 0.0 | 0.0 | 0.00 | 0.00 | 0.00 | 69 | 1014.4 |
| 20260903082203 | 77 | 0 | 0.0 | 0.0 | 0.00 | 0.00 | 0.00 | 69 | 1014.3 |
| 20260903082003 | 77 | 0 | 0.0 | 0.0 | 0.00 | 0.00 | 0.00 | 70 | 1014.3 |
| 20260903081824 | 77 | 0 | 0.0 | 0.0 | 0.00 | 0.00 | 0.00 | 70 | 1014.3 |
| 20260903081603 | 77 | 0 | 0.0 | 0.0 | 0.00 | 0.00 | 0.00 | 70 | 1014.3 |
| 20260903081403 | 77 | 0 | 0.0 | 0.0 | 0.00 | 0.00 | 0.00 | 70 | 1014.3 |
| 20260903081203 | 76 | 0 | 0.0 | 0.0 | 0.00 | 0.00 | 0.00 | 70 | 1014.3 |
| 20260903081003 | 76 | 0 | 0.0 | 0.0 | 0.00 | 0.00 | 0.00 | 70 | 1014.3 |
| 20260903080803 | 76 | 0 | 0.0 | 0.0 | 0.00 | 0.00 | 0.00 | 70 | 1014.3 |
| 20260903080603 | 77 | 0 | 0.0 | 0.0 | 0.00 | 0.00 | 0.00 | 70 | 1014.3 |
| 20260903080403 | 77 | 0 | 0.0 | 0.0 | 0.00 | 0.00 | 0.00 | 70 | 1014.3 |
| 20260903080224 | 77 | 0 | 0.0 | 0.0 | 0.00 | 0.00 | 0.00 | 70 | 1014.3 |
| 20260903080003 | 77 | 0 | 0.0 | 0.0 | 0.00 | 0.00 | 0.00 | 70 | 1014.3 |
| 20260903075803 | 77 | 0 | 0.0 | 0.0 | 0.00 | 0.00 | 0.00 | 70 | 1014.3 |
| 20260903075603 | 77 | 0 | 0.0 | 0.0 | 0.00 | 0.00 | 0.00 | 70 | 1014.3 |
| 20260903075404 | 77 | 0 | 0.0 | 0.0 | 0.00 | 0.00 | 0.00 | 70 | 1014.3 |
| 20260903075003 | 77 | 0 | 0.0 | 0.0 | 0.00 | 0.00 | 0.00 | 71 | 1014.3 |
| 20260903074803 | 77 | 0 | 0.0 | 0.0 | 0.00 | 0.00 | 0.00 | 71 | 1014.3 |
| 20260903074603 | 77 | 0 | 0.0 | 0.0 | 0.00 | 0.00 | 0.00 | 72 | 1014.3 |
| 20260903074403 | 76 | 0 | 0.0 | 0.0 | 0.00 | 0.00 | 0.00 | 72 | 1014.3 |
| 20260903074204 | 76 | 0 | 0.0 | 0.0 | 0.00 | 0.00 | 0.00 | 72 | 1014.2 |
| 20260903074003 | 76 | 0 | 0.0 | 0.0 | 0.00 | 0.00 | 0.00 | 72 | 1014.2 |
| 20260903073803 | 76 | 0 | 0.0 | 0.0 | 0.00 | 0.00 | 0.00 | 72 | 1014.3 |
| 20260903073603 | 76 | 0 | 0.0 | 0.0 | 0.00 | 0.00 | 0.00 | 72 | 1014.2 |
| 20260903073403 | 76 | 0 | 0.0 | 0.0 | 0.00 | 0.00 | 0.00 | 72 | 1014.2 |
| 20260903073203 | 76 | 0 | 0.0 | 0.0 | 0.00 | 0.00 | 0.00 | 71 | 1014.2 |
| 20260903073003 | 76 | 0 | 0.0 | 0.0 | 0.00 | 0.00 | 0.00 | 71 | 1014.2 |
| 20260903072824 | 76 | 0 | 0.0 | 0.0 | 0.00 | 0.00 | 0.00 | 71 | 1014.2 |
| 20260903072624 | 76 | 0 | 0.0 | 0.0 | 0.00 | 0.00 | 0.00 | 70 | 1014.2 |
| 20260903072403 | 76 | 0 | 0.0 | 0.0 | 0.00 | 0.00 | 0.00 | 70 | 1014.2 |
| 20260903072203 | 76 | 0 | 0.0 | 0.0 | 0.00 | 0.00 | 0.00 | 71 | 1014.2 |
| 20260903072025 | 76 | 0 | 0.0 | 0.0 | 0.00 | 0.00 | 0.00 | 71 | 1014.2 |
| 20260903071803 | 76 | 0 | 0.0 | 0.0 | 0.00 | 0.00 | 0.00 | 70 | 1014.2 |
| 20260903071603 | 76 | 0 | 0.0 | 0.0 | 0.00 | 0.00 | 0.00 | 70 | 1014.2 |
| 20260903071404 | 76 | 0 | 0.0 | 0.0 | 0.00 | 0.00 | 0.00 | 70 | 1014.2 |
| 20260903071203 | 76 | 0 | 0.0 | 0.0 | 0.00 | 0.00 | 0.00 | 70 | 1014.2 |
| 20260903071003 | 76 | 0 | 0.0 | 0.0 | 0.00 | 0.00 | 0.00 | 70 | 1014.2 |
| 20260903070824 | 76 | 0 | 0.0 | 0.0 | 0.00 | 0.00 | 0.00 | 69 | 1014.3 |
| 20260903070603 | 76 | 0 | 0.0 | 0.0 | 0.00 | 0.00 | 0.00 | 70 | 1014.3 |
| 20260903070403 | 76 | 0 | 0.0 | 0.0 | 0.00 | 0.00 | 0.00 | 70 | 1014.3 |
| 20260903070203 | 76 | 0 | 0.0 | 0.0 | 0.00 | 0.00 | 0.00 | 69 | 1014.3 |
| 20260903070024 | 76 | 0 | 0.0 | 0.0 | 0.00 | 0.00 | 0.00 | 69 | 1014.3 |
| 20260903065803 | 76 | 0 | 0.0 | 0.0 | 0.00 | 0.00 | 0.00 | 69 | 1014.3 |
| 20260903065624 | 77 | 0 | 0.0 | 0.0 | 0.00 | 0.00 | 0.00 | 69 | 1014.3 |
| 20260903065403 | 77 | 0 | 0.0 | 0.0 | 0.00 | 0.00 | 0.00 | 70 | 1014.3 |
| 20260903065203 | 77 | 0 | 0.0 | 0.0 | 0.00 | 0.00 | 0.00 | 70 | 1014.3 |
| 20260903065003 | 77 | 0 | 0.0 | 0.0 | 0.00 | 0.00 | 0.00 | 70 | 1014.3 |
| 20260903064803 | 76 | 0 | 0.0 | 0.0 | 0.00 | 0.00 | 0.00 | 70 | 1014.3 |
| 20260903064624 | 76 | 0 | 0.0 | 0.0 | 0.00 | 0.00 | 0.00 | 70 | 1014.3 |
| 20260903064424 | 76 | 0 | 0.0 | 0.0 | 0.00 | 0.00 | 0.00 | 70 | 1014.3 |
| 20260903064203 | 76 | 0 | 0.0 | 0.0 | 0.00 | 0.00 | 0.00 | 70 | 1014.3 |
| 20260903064004 | 76 | 0 | 0.0 | 0.0 | 0.00 | 0.00 | 0.00 | 70 | 1014.3 |
| 20260903063803 | 76 | 0 | 0.0 | 0.0 | 0.00 | 0.00 | 0.00 | 70 | 1014.3 |
| 20260903063624 | 76 | 0 | 0.0 | 0.0 | 0.00 | 0.00 | 0.00 | 70 | 1014.3 |
| 20260903063403 | 76 | 0 | 0.0 | 0.0 | 0.00 | 0.00 | 0.00 | 70 | 1014.3 |
| 20260903063203 | 76 | 0 | 0.0 | 0.0 | 0.00 | 0.00 | 0.00 | 70 | 1014.3 |
| 20260903063003 | 77 | 0 | 0.0 | 0.0 | 0.00 | 0.00 | 0.00 | 70 | 1014.3 |
| 20260903062803 | 77 | 0 | 0.0 | 0.0 | 0.00 | 0.00 | 0.00 | 70 | 1014.3 |
| 20260903062603 | 77 | 0 | 0.0 | 0.0 | 0.00 | 0.00 | 0.00 | 70 | 1014.3 |
| 20260903062403 | 77 | 0 | 0.0 | 0.0 | 0.00 | 0.00 | 0.00 | 70 | 1014.3 |
| 20260903062224 | 77 | 0 | 0.0 | 0.0 | 0.00 | 0.00 | 0.00 | 70 | 1014.3 |
| 20260903062003 | 77 | 0 | 0.0 | 0.0 | 0.00 | 0.00 | 0.00 | 70 | 1014.3 |
| 20260903061824 | 77 | 0 | 0.0 | 0.0 | 0.00 | 0.00 | 0.00 | 70 | 1014.3 |
| 20260903061624 | 77 | 0 | 0.0 | 0.0 | 0.00 | 0.00 | 0.00 | 70 | 1014.3 |
| 20260903061403 | 77 | 0 | 0.0 | 0.0 | 0.00 | 0.00 | 0.00 | 70 | 1014.3 |
| 20260903061203 | 77 | 0 | 0.0 | 0.0 | 0.00 | 0.00 | 0.00 | 70 | 1014.3 |
| 20260903061003 | 77 | 0 | 0.0 | 0.0 | 0.00 | 0.00 | 0.00 | 70 | 1014.3 |
| 20260903060803 | 77 | 0 | 0.0 | 0.0 | 0.00 | 0.00 | 0.00 | 69 | 1014.3 |
| 20260903060603 | 77 | 0 | 0.0 | 0.0 | 0.00 | 0.00 | 0.00 | 69 | 1014.3 |
| 20260903060424 | 77 | 0 | 0.0 | 0.0 | 0.00 | 0.00 | 0.00 | 69 | 1014.3 |
| 20260903060203 | 77 | 0 | 0.0 | 0.0 | 0.00 | 0.00 | 0.00 | 69 | 1014.3 |
| 20260903060003 | 77 | 0 | 0.0 | 0.0 | 0.00 | 0.00 | 0.00 | 69 | 1014.3 |
| 20260903055803 | 77 | 0 | 0.0 | 0.0 | 0.00 | 0.00 | 0.00 | 70 | 1014.3 |
| 20260903055603 | 77 | 0 | 0.0 | 0.0 | 0.00 | 0.00 | 0.00 | 70 | 1014.3 |
| 20260903055403 | 77 | 0 | 0.0 | 0.0 | 0.00 | 0.00 | 0.00 | 70 | 1014.3 |
| 20260903055203 | 77 | 0 | 0.0 | 0.0 | 0.00 | 0.00 | 0.00 | 70 | 1014.3 |
| 20260903055003 | 77 | 0 | 0.0 | 0.0 | 0.00 | 0.00 | 0.00 | 70 | 1014.3 |
| 20260903054824 | 77 | 0 | 0.0 | 0.0 | 0.00 | 0.00 | 0.00 | 70 | 1014.3 |
| 20260903054603 | 77 | 0 | 0.0 | 0.0 | 0.00 | 0.00 | 0.00 | 70 | 1014.3 |
| 20260903054403 | 77 | 0 | 0.0 | 0.0 | 0.00 | 0.00 | 0.00 | 69 | 1014.2 |
| 20260903054203 | 77 | 0 | 0.0 | 0.0 | 0.00 | 0.00 | 0.00 | 69 | 1014.3 |
| 20260903054003 | 77 | 0 | 0.0 | 0.0 | 0.00 | 0.00 | 0.00 | 68 | 1014.2 |
| 20260903053803 | 77 | 0 | 0.0 | 0.0 | 0.00 | 0.00 | 0.00 | 68 | 1014.3 |
| 20260903053603 | 77 | 0 | 0.0 | 0.0 | 0.00 | 0.00 | 0.00 | 68 | 1014.2 |
| 20260903053424 | 77 | 0 | 0.0 | 0.0 | 0.00 | 0.00 | 0.00 | 68 | 1014.3 |
| 20260903053203 | 77 | 0 | 0.0 | 0.0 | 0.00 | 0.00 | 0.00 | 67 | 1014.2 |
| 20260903053004 | 78 | 0 | 0.0 | 0.0 | 0.00 | 0.00 | 0.00 | 67 | 1014.2 |
| 20260903052824 | 78 | 0 | 0.0 | 0.0 | 0.00 | 0.00 | 0.00 | 67 | 1014.2 |
| 20260903052603 | 78 | 0 | 0.0 | 0.0 | 0.00 | 0.00 | 0.00 | 67 | 1014.2 |
| 20260903052403 | 78 | 0 | 0.0 | 0.0 | 0.00 | 0.00 | 0.00 | 67 | 1014.2 |
| 20260903052204 | 78 | 0 | 0.0 | 0.0 | 0.00 | 0.00 | 0.00 | 66 | 1014.2 |
| 20260903052003 | 78 | 0 | 0.0 | 0.0 | 0.00 | 0.00 | 0.00 | 66 | 1014.2 |
| 20260903051803 | 78 | 0 | 0.0 | 0.0 | 0.00 | 0.00 | 0.00 | 66 | 1014.1 |
| 20260903051603 | 78 | 0 | 0.0 | 0.0 | 0.00 | 0.00 | 0.00 | 66 | 1014.1 |
| 20260903051403 | 78 | 0 | 0.0 | 0.0 | 0.00 | 0.00 | 0.00 | 66 | 1014.1 |
| 20260903051203 | 78 | 0 | 0.0 | 0.0 | 0.00 | 0.00 | 0.00 | 66 | 1014.2 |
| 20260903051003 | 78 | 0 | 0.0 | 0.0 | 0.00 | 0.00 | 0.00 | 66 | 1014.1 |
| 20260903050803 | 79 | 0 | 0.0 | 0.0 | 0.00 | 0.00 | 0.00 | 66 | 1014.1 |
| 20260903050603 | 79 | 0 | 0.0 | 0.0 | 0.00 | 0.00 | 0.00 | 66 | 1014.1 |
| 20260903050403 | 79 | 0 | 0.0 | 0.0 | 0.00 | 0.00 | 0.00 | 66 | 1014.1 |
| 20260903050224 | 79 | 0 | 0.0 | 0.0 | 0.00 | 0.00 | 0.00 | 66 | 1014.1 |
| 20260903050024 | 79 | 0 | 0.0 | 0.0 | 0.00 | 0.00 | 0.00 | 67 | 1014.1 |
| 20260903045803 | 79 | 0 | 0.0 | 0.0 | 0.00 | 0.00 | 0.00 | 66 | 1014.1 |
| 20260903045603 | 79 | 0 | 0.0 | 0.0 | 0.00 | 0.00 | 0.00 | 66 | 1014.1 |
| 20260903045404 | 79 | 0 | 0.0 | 0.0 | 0.00 | 0.00 | 0.00 | 66 | 1014.1 |
| 20260903045203 | 79 | 0 | 0.0 | 0.0 | 0.00 | 0.00 | 0.00 | 66 | 1014.1 |
| 20260903045003 | 79 | 0 | 0.0 | 0.0 | 0.00 | 0.00 | 0.00 | 66 | 1014.1 |
| 20260903044803 | 79 | 0 | 0.0 | 0.0 | 0.00 | 0.00 | 0.00 | 65 | 1014.1 |
| 20260903044603 | 80 | 0 | 0.0 | 0.0 | 0.00 | 0.00 | 0.00 | 65 | 1014.0 |
| 20260903044403 | 80 | 0 | 0.0 | 0.0 | 0.00 | 0.00 | 0.00 | 65 | 1014.0 |
| 20260903044224 | 80 | 0 | 0.0 | 0.0 | 0.00 | 0.00 | 0.00 | 64 | 1014.0 |
| 20260903044003 | 80 | 0 | 0.0 | 0.0 | 0.00 | 0.00 | 0.00 | 64 | 1013.9 |
| 20260903043803 | 80 | 0 | 0.0 | 0.0 | 0.00 | 0.00 | 0.00 | 63 | 1014.0 |
| 20260903043624 | 81 | 0 | 0.0 | 0.0 | 0.00 | 0.00 | 0.00 | 63 | 1013.9 |
| 20260903043424 | 81 | 0 | 0.0 | 0.0 | 0.00 | 0.00 | 0.00 | 63 | 1013.9 |
| 20260903043203 | 81 | 0 | 0.0 | 0.0 | 0.00 | 0.00 | 0.00 | 64 | 1013.9 |
| 20260903043024 | 81 | 0 | 0.0 | 0.0 | 0.00 | 0.00 | 0.00 | 64 | 1013.9 |
| 20260903042803 | 81 | 0 | 0.0 | 0.0 | 0.00 | 0.00 | 0.00 | 64 | 1013.9 |
| 20260903042603 | 81 | 0 | 0.0 | 0.0 | 0.00 | 0.00 | 0.00 | 64 | 1013.8 |
| 20260903042424 | 81 | 0 | 0.0 | 0.0 | 0.00 | 0.00 | 0.00 | 64 | 1013.8 |
| 20260903042203 | 80 | 0 | 0.0 | 0.0 | 0.00 | 0.00 | 0.00 | 65 | 1013.8 |
| 20260903042003 | 80 | 0 | 0.0 | 0.0 | 0.00 | 0.00 | 0.00 | 65 | 1013.8 |
| 20260903041803 | 80 | 0 | 0.0 | 0.0 | 0.00 | 0.00 | 0.00 | 65 | 1013.7 |
| 20260903041603 | 80 | 0 | 0.0 | 0.0 | 0.00 | 0.00 | 0.00 | 65 | 1013.7 |
| 20260903041403 | 80 | 0 | 0.0 | 0.0 | 0.00 | 0.00 | 0.00 | 65 | 1013.7 |
| 20260903041203 | 80 | 0 | 0.0 | 0.0 | 0.00 | 0.00 | 0.00 | 66 | 1013.7 |
| 20260903041003 | 80 | 0 | 0.0 | 0.0 | 0.00 | 0.00 | 0.00 | 66 | 1013.7 |
| 20260903040804 | 80 | 0 | 0.0 | 0.0 | 0.00 | 0.00 | 0.00 | 66 | 1013.7 |
| 20260903040603 | 80 | 0 | 0.0 | 0.0 | 0.00 | 0.00 | 0.00 | 66 | 1013.7 |
| 20260903040403 | 80 | 0 | 0.0 | 0.0 | 0.00 | 0.00 | 0.00 | 66 | 1013.7 |
| 20260903040204 | 80 | 0 | 0.0 | 0.0 | 0.00 | 0.00 | 0.00 | 66 | 1013.6 |
| 20260903040004 | 80 | 0 | 0.0 | 0.0 | 0.00 | 0.00 | 0.00 | 66 | 1013.6 |
| 20260903035824 | 80 | 0 | 0.0 | 0.0 | 0.00 | 0.00 | 0.00 | 65 | 1013.6 |
| 20260903035603 | 80 | 0 | 0.0 | 0.0 | 0.00 | 0.00 | 0.00 | 66 | 1013.6 |
| 20260903035403 | 80 | 0 | 0.0 | 0.0 | 0.00 | 0.00 | 0.00 | 65 | 1013.6 |
| 20260903035203 | 80 | 0 | 0.0 | 0.0 | 0.00 | 0.00 | 0.00 | 65 | 1013.7 |
| 20260903035003 | 80 | 0 | 0.0 | 0.0 | 0.00 | 0.00 | 0.00 | 65 | 1013.6 |
| 20260903034803 | 80 | 0 | 0.0 | 0.0 | 0.00 | 0.00 | 0.00 | 65 | 1013.5 |
| 20260903034603 | 80 | 0 | 0.0 | 0.0 | 0.00 | 0.00 | 0.00 | 65 | 1013.5 |
| 20260903034403 | 80 | 0 | 0.0 | 0.0 | 0.00 | 0.00 | 0.00 | 66 | 1013.5 |
| 20260903034203 | 80 | 0 | 0.0 | 0.0 | 0.00 | 0.00 | 0.00 | 66 | 1013.5 |
| 20260903034003 | 80 | 0 | 0.0 | 0.0 | 0.00 | 0.00 | 0.00 | 66 | 1013.5 |
| 20260903033803 | 80 | 0 | 0.0 | 0.0 | 0.00 | 0.00 | 0.00 | 66 | 1013.5 |
| 20260903033603 | 80 | 0 | 0.0 | 0.0 | 0.00 | 0.00 | 0.00 | 66 | 1013.5 |
| 20260903033403 | 80 | 0 | 0.0 | 0.0 | 0.00 | 0.00 | 0.00 | 66 | 1013.5 |
| 20260903033203 | 80 | 0 | 0.0 | 0.0 | 0.00 | 0.00 | 0.00 | 65 | 1013.5 |
| 20260903033024 | 80 | 0 | 0.0 | 0.0 | 0.00 | 0.00 | 0.00 | 65 | 1013.5 |
| 20260903032803 | 80 | 0 | 0.0 | 0.0 | 0.00 | 0.00 | 0.00 | 65 | 1013.5 |
| 20260903032603 | 80 | 0 | 0.0 | 0.0 | 0.00 | 0.00 | 0.00 | 65 | 1013.6 |
| 20260903032403 | 80 | 0 | 0.0 | 0.0 | 0.00 | 0.00 | 0.00 | 65 | 1013.6 |
| 20260903032203 | 80 | 0 | 0.0 | 0.0 | 0.00 | 0.00 | 0.00 | 65 | 1013.6 |
| 20260903032003 | 80 | 0 | 0.0 | 0.0 | 0.00 | 0.00 | 0.00 | 65 | 1013.6 |
| 20260903031803 | 80 | 0 | 0.0 | 0.0 | 0.00 | 0.00 | 0.00 | 65 | 1013.6 |
| 20260903031624 | 80 | 0 | 0.0 | 0.0 | 0.00 | 0.00 | 0.00 | 65 | 1013.6 |
| 20260903031403 | 80 | 0 | 0.0 | 0.0 | 0.00 | 0.00 | 0.00 | 65 | 1013.6 |
| 20260903031203 | 81 | 0 | 0.0 | 0.0 | 0.00 | 0.00 | 0.00 | 65 | 1013.6 |
| 20260903031003 | 81 | 0 | 0.0 | 0.0 | 0.00 | 0.00 | 0.00 | 65 | 1013.6 |
| 20260903030803 | 81 | 0 | 0.0 | 0.0 | 0.00 | 0.00 | 0.00 | 65 | 1013.6 |
| 20260903030603 | 81 | 0 | 0.0 | 0.0 | 0.00 | 0.00 | 0.00 | 65 | 1013.6 |
| 20260903030403 | 81 | 0 | 0.0 | 0.0 | 0.00 | 0.00 | 0.00 | 65 | 1013.6 |
| 20260903030203 | 81 | 0 | 0.0 | 0.0 | 0.00 | 0.00 | 0.00 | 65 | 1013.6 |
| 20260903030003 | 81 | 0 | 0.0 | 0.0 | 0.00 | 0.00 | 0.00 | 65 | 1013.7 |
| 20260903025803 | 81 | 0 | 0.0 | 0.0 | 0.00 | 0.00 | 0.00 | 65 | 1013.7 |
| 20260903025624 | 81 | 0 | 0.0 | 0.0 | 0.00 | 0.00 | 0.00 | 65 | 1013.7 |
| 20260903025403 | 81 | 0 | 0.0 | 0.0 | 0.00 | 0.00 | 0.00 | 65 | 1013.7 |
| 20260903025203 | 81 | 0 | 0.0 | 0.0 | 0.00 | 0.00 | 0.00 | 65 | 1013.7 |
| 20260903025003 | 81 | 0 | 0.0 | 0.0 | 0.00 | 0.00 | 0.00 | 65 | 1013.7 |
| 20260903024824 | 81 | 0 | 0.0 | 0.0 | 0.00 | 0.00 | 0.00 | 65 | 1013.8 |
| 20260903024603 | 81 | 0 | 0.0 | 0.0 | 0.00 | 0.00 | 0.00 | 65 | 1013.8 |
| 20260903024403 | 81 | 0 | 0.0 | 0.0 | 0.00 | 0.00 | 0.00 | 65 | 1013.8 |
| 20260903024224 | 81 | 0 | 0.0 | 0.0 | 0.00 | 0.00 | 0.00 | 65 | 1013.8 |
| 20260903024004 | 81 | 0 | 0.0 | 0.0 | 0.00 | 0.00 | 0.00 | 65 | 1013.8 |
| 20260903023803 | 81 | 0 | 0.0 | 0.0 | 0.00 | 0.00 | 0.00 | 65 | 1013.8 |
| 20260903023604 | 81 | 0 | 0.0 | 0.0 | 0.00 | 0.00 | 0.00 | 65 | 1013.8 |
| 20260903023403 | 81 | 0 | 0.0 | 0.0 | 0.00 | 0.00 | 0.00 | 65 | 1013.8 |
| 20260903023203 | 81 | 0 | 0.0 | 0.0 | 0.00 | 0.00 | 0.00 | 65 | 1013.8 |
| 20260903023003 | 81 | 0 | 0.0 | 0.0 | 0.00 | 0.00 | 0.00 | 65 | 1013.8 |
| 20260903022803 | 81 | 0 | 0.0 | 0.0 | 0.00 | 0.00 | 0.00 | 65 | 1013.8 |
| 20260903022603 | 81 | 0 | 0.0 | 0.0 | 0.00 | 0.00 | 0.00 | 65 | 1013.9 |
| 20260903022403 | 81 | 0 | 0.0 | 0.0 | 0.00 | 0.00 | 0.00 | 64 | 1013.8 |
| 20260903022203 | 81 | 0 | 0.0 | 0.0 | 0.00 | 0.00 | 0.00 | 64 | 1013.8 |
| 20260903022003 | 82 | 0 | 0.0 | 0.0 | 0.00 | 0.00 | 0.00 | 64 | 1013.9 |
| 20260903021803 | 82 | 0 | 0.0 | 0.0 | 0.00 | 0.00 | 0.00 | 64 | 1013.9 |
| 20260903021603 | 82 | 0 | 0.0 | 0.0 | 0.00 | 0.00 | 0.00 | 64 | 1013.9 |
| 20260903021403 | 82 | 0 | 0.0 | 0.0 | 0.00 | 0.00 | 0.00 | 64 | 1014.0 |
| 20260903021224 | 82 | 0 | 0.0 | 0.0 | 0.00 | 0.00 | 0.00 | 64 | 1014.0 |
| 20260903021025 | 82 | 0 | 0.0 | 0.0 | 0.00 | 0.00 | 0.00 | 64 | 1014.0 |
| 20260903020825 | 82 | 0 | 0.0 | 0.0 | 0.00 | 0.00 | 0.00 | 64 | 1014.0 |
| 20260903020604 | 82 | 0 | 0.0 | 0.0 | 0.00 | 0.00 | 0.00 | 64 | 1014.0 |
| 20260903020403 | 82 | 0 | 0.0 | 0.0 | 0.00 | 0.00 | 0.00 | 64 | 1013.9 |
| 20260903020203 | 82 | 0 | 0.0 | 0.0 | 0.00 | 0.00 | 0.00 | 64 | 1013.9 |
| 20260903020024 | 82 | 0 | 0.0 | 0.0 | 0.00 | 0.00 | 0.00 | 64 | 1013.9 |
| 20260903015803 | 82 | 0 | 0.0 | 0.0 | 0.00 | 0.00 | 0.00 | 64 | 1013.9 |
| 20260903015604 | 82 | 0 | 0.0 | 0.0 | 0.00 | 0.00 | 0.00 | 64 | 1013.9 |
| 20260903015403 | 82 | 0 | 0.0 | 0.0 | 0.00 | 0.00 | 0.00 | 64 | 1013.8 |
| 20260903015203 | 82 | 0 | 0.0 | 0.0 | 0.00 | 0.00 | 0.00 | 64 | 1013.8 |
| 20260903015003 | 82 | 0 | 0.0 | 0.0 | 0.00 | 0.00 | 0.00 | 64 | 1013.8 |
| 20260903014825 | 82 | 0 | 0.0 | 0.0 | 0.00 | 0.00 | 0.00 | 64 | 1013.8 |
| 20260903014624 | 82 | 0 | 0.0 | 0.0 | 0.00 | 0.00 | 0.00 | 63 | 1013.8 |
| 20260903014403 | 82 | 0 | 0.0 | 0.0 | 0.00 | 0.00 | 0.00 | 63 | 1013.7 |
| 20260903014203 | 83 | 0 | 0.0 | 0.0 | 0.00 | 0.00 | 0.00 | 63 | 1013.7 |
| 20260903014024 | 83 | 0 | 0.0 | 0.0 | 0.00 | 0.00 | 0.00 | 63 | 1013.7 |
| 20260903013803 | 83 | 0 | 0.0 | 0.0 | 0.00 | 0.00 | 0.00 | 63 | 1013.7 |
| 20260903013603 | 83 | 0 | 0.0 | 0.0 | 0.00 | 0.00 | 0.00 | 63 | 1013.7 |
| 20260903013403 | 83 | 0 | 0.0 | 0.0 | 0.00 | 0.00 | 0.00 | 63 | 1013.7 |
| 20260903013203 | 83 | 0 | 0.0 | 0.0 | 0.00 | 0.00 | 0.00 | 63 | 1013.6 |
| 20260903013003 | 83 | 0 | 0.0 | 0.0 | 0.00 | 0.00 | 0.00 | 63 | 1013.6 |
| 20260903012824 | 83 | 0 | 0.0 | 0.0 | 0.00 | 0.00 | 0.00 | 63 | 1013.7 |
| 20260903012603 | 83 | 0 | 0.0 | 0.0 | 0.00 | 0.00 | 0.00 | 63 | 1013.7 |
| 20260903012424 | 83 | 0 | 0.0 | 0.0 | 0.00 | 0.00 | 0.00 | 63 | 1013.6 |
| 20260903012224 | 83 | 0 | 0.0 | 0.0 | 0.00 | 0.00 | 0.00 | 63 | 1013.5 |
| 20260903012003 | 83 | 0 | 0.0 | 0.0 | 0.00 | 0.00 | 0.00 | 63 | 1013.5 |
| 20260903011803 | 83 | 0 | 0.0 | 0.0 | 0.00 | 0.00 | 0.00 | 63 | 1013.5 |
| 20260903011624 | 83 | 0 | 0.0 | 0.0 | 0.00 | 0.00 | 0.00 | 63 | 1013.5 |
| 20260903011403 | 83 | 0 | 0.0 | 0.0 | 0.00 | 0.00 | 0.00 | 63 | 1013.4 |
| 20260903011203 | 83 | 0 | 0.0 | 0.0 | 0.00 | 0.00 | 0.00 | 63 | 1013.4 |
| 20260903011003 | 83 | 0 | 0.0 | 0.0 | 0.00 | 0.00 | 0.00 | 63 | 1013.4 |
| 20260903010803 | 83 | 0 | 0.0 | 0.0 | 0.00 | 0.00 | 0.00 | 62 | 1013.4 |
| 20260903010605 | 83 | 0 | 0.0 | 0.0 | 0.00 | 0.00 | 0.00 | 62 | 1013.3 |
| 20260903010403 | 84 | 0 | 0.0 | 0.0 | 0.00 | 0.00 | 0.00 | 62 | 1013.3 |
| 20260903010203 | 84 | 0 | 0.0 | 0.0 | 0.00 | 0.00 | 0.00 | 61 | 1013.2 |
| 20260903010003 | 84 | 0 | 0.0 | 0.0 | 0.00 | 0.00 | 0.00 | 61 | 1013.2 |
| 20260903005824 | 84 | 0 | 0.0 | 0.0 | 0.00 | 0.00 | 0.00 | 61 | 1013.3 |
| 20260903005624 | 84 | 0 | 0.0 | 0.0 | 0.00 | 0.00 | 0.00 | 61 | 1013.2 |
| 20260903005424 | 84 | 0 | 0.0 | 0.0 | 0.00 | 0.00 | 0.00 | 61 | 1013.3 |
| 20260903005203 | 84 | 0 | 0.0 | 0.0 | 0.00 | 0.00 | 0.00 | 61 | 1013.3 |
| 20260903005003 | 84 | 0 | 0.0 | 0.0 | 0.00 | 0.00 | 0.00 | 61 | 1013.2 |
| 20260903004803 | 84 | 0 | 0.0 | 0.0 | 0.00 | 0.00 | 0.00 | 61 | 1013.2 |
| 20260903004603 | 84 | 0 | 0.0 | 0.0 | 0.00 | 0.00 | 0.00 | 61 | 1013.2 |
| 20260903004403 | 84 | 0 | 0.0 | 0.0 | 0.00 | 0.00 | 0.00 | 60 | 1013.2 |
| 20260903004204 | 85 | 0 | 0.0 | 0.0 | 0.00 | 0.00 | 0.00 | 60 | 1013.2 |
| 20260903004024 | 85 | 300 | 0.0 | 3.0 | 0.00 | 0.00 | 0.00 | 60 | 1013.1 |
| 20260903003803 | 85 | 299 | 1.0 | 4.0 | 0.00 | 0.00 | 0.00 | 60 | 1013.1 |
| 20260903003624 | 85 | 300 | 1.0 | 4.0 | 0.00 | 0.00 | 0.00 | 60 | 1013.1 |
| 20260903003403 | 85 | 300 | 1.0 | 4.0 | 0.00 | 0.00 | 0.00 | 60 | 1013.1 |
| 20260903003203 | 85 | 300 | 1.0 | 4.0 | 0.00 | 0.00 | 0.00 | 60 | 1013.1 |
| 20260903003003 | 85 | 299 | 0.0 | 4.0 | 0.00 | 0.00 | 0.00 | 60 | 1013.1 |
| 20260903002803 | 85 | 304 | 0.0 | 3.0 | 0.00 | 0.00 | 0.00 | 60 | 1013.1 |
| 20260903002603 | 85 | 0 | 0.0 | 0.0 | 0.00 | 0.00 | 0.00 | 60 | 1013.1 |
| 20260903002403 | 85 | 0 | 0.0 | 0.0 | 0.00 | 0.00 | 0.00 | 60 | 1013.1 |
| 20260903002203 | 85 | 0 | 0.0 | 0.0 | 0.00 | 0.00 | 0.00 | 60 | 1013.1 |
| 20260903002003 | 85 | 0 | 0.0 | 0.0 | 0.00 | 0.00 | 0.00 | 60 | 1013.1 |
| 20260903001803 | 85 | 0 | 0.0 | 0.0 | 0.00 | 0.00 | 0.00 | 60 | 1013.1 |
| 20260903001603 | 85 | 0 | 0.0 | 0.0 | 0.00 | 0.00 | 0.00 | 60 | 1013.0 |
| 20260903001403 | 85 | 0 | 0.0 | 0.0 | 0.00 | 0.00 | 0.00 | 60 | 1013.0 |
| 20260903001224 | 85 | 0 | 0.0 | 0.0 | 0.00 | 0.00 | 0.00 | 59 | 1013.0 |
| 20260903001003 | 85 | 304 | 0.0 | 2.0 | 0.00 | 0.00 | 0.00 | 60 | 1013.0 |
| 20260903000803 | 85 | 304 | 1.0 | 3.0 | 0.00 | 0.00 | 0.00 | 59 | 1013.0 |
| 20260903000603 | 85 | 304 | 1.0 | 3.0 | 0.00 | 0.00 | 0.00 | 59 | 1013.0 |
| 20260903000404 | 85 | 304 | 1.0 | 3.0 | 0.00 | 0.00 | 0.00 | 59 | 1013.0 |
| 20260903000204 | 86 | 304 | 2.0 | 4.0 | 0.00 | 0.00 | 0.00 | 59 | 1013.0 |
| 20260903000003 | 86 | 304 | 2.0 | 4.0 | 0.00 | 0.00 | 0.00 | 59 | 1013.0 |
| 20260902235803 | 86 | 306 | 2.0 | 4.0 | 0.00 | 0.00 | 0.00 | 58 | 1013.0 |
| 20260902235603 | 86 | 310 | 2.0 | 4.0 | 0.00 | 0.00 | 0.00 | 58 | 1013.0 |
| 20260902235424 | 86 | 310 | 2.0 | 4.0 | 0.00 | 0.00 | 0.00 | 58 | 1013.0 |
| 20260902235203 | 86 | 310 | 2.0 | 4.0 | 0.00 | 0.00 | 0.00 | 58 | 1013.0 |
| 20260902235003 | 86 | 310 | 2.0 | 4.0 | 0.00 | 0.00 | 0.00 | 58 | 1013.0 |
| 20260902234824 | 86 | 307 | 2.0 | 4.0 | 0.00 | 0.00 | 0.00 | 58 | 1013.0 |
| 20260902234624 | 87 | 305 | 2.0 | 4.0 | 0.00 | 0.00 | 0.00 | 57 | 1013.0 |
| 20260902234403 | 87 | 304 | 2.0 | 4.0 | 0.00 | 0.00 | 0.00 | 57 | 1013.0 |
| 20260902234203 | 87 | 305 | 2.0 | 4.0 | 0.00 | 0.00 | 0.00 | 57 | 1013.0 |
| 20260902234003 | 87 | 306 | 3.0 | 6.0 | 0.00 | 0.00 | 0.00 | 56 | 1013.0 |
| 20260902233803 | 87 | 308 | 3.0 | 6.0 | 0.00 | 0.00 | 0.00 | 56 | 1013.0 |
| 20260902233603 | 88 | 306 | 3.0 | 6.0 | 0.00 | 0.00 | 0.00 | 56 | 1012.9 |
| 20260902233403 | 88 | 305 | 4.0 | 7.0 | 0.00 | 0.00 | 0.00 | 56 | 1013.0 |
| 20260902233203 | 88 | 304 | 4.0 | 7.0 | 0.00 | 0.00 | 0.00 | 55 | 1013.1 |
| 20260902233024 | 88 | 302 | 4.0 | 7.0 | 0.00 | 0.00 | 0.00 | 55 | 1013.0 |
| 20260902232803 | 88 | 300 | 4.0 | 7.0 | 0.00 | 0.00 | 0.00 | 55 | 1013.0 |
| 20260902232603 | 88 | 298 | 4.0 | 7.0 | 0.00 | 0.00 | 0.00 | 54 | 1013.1 |
| 20260902232404 | 89 | 299 | 3.0 | 6.0 | 0.00 | 0.00 | 0.00 | 54 | 1013.1 |
| 20260902232203 | 89 | 301 | 4.0 | 10.0 | 0.00 | 0.00 | 0.00 | 54 | 1013.1 |
| 20260902232004 | 89 | 302 | 4.0 | 10.0 | 0.00 | 0.00 | 0.00 | 54 | 1013.1 |
| 20260902231824 | 89 | 304 | 4.0 | 10.0 | 0.00 | 0.00 | 0.00 | 53 | 1013.1 |
| 20260902231603 | 90 | 307 | 4.0 | 10.0 | 0.00 | 0.00 | 0.00 | 53 | 1013.1 |
| 20260902231404 | 90 | 306 | 4.0 | 10.0 | 0.00 | 0.00 | 0.00 | 52 | 1013.1 |
| 20260902231203 | 90 | 306 | 4.0 | 10.0 | 0.00 | 0.00 | 0.00 | 52 | 1013.1 |
| 20260902231003 | 90 | 308 | 4.0 | 10.0 | 0.00 | 0.00 | 0.00 | 52 | 1013.1 |
| 20260902230824 | 91 | 307 | 4.0 | 10.0 | 0.00 | 0.00 | 0.00 | 51 | 1013.0 |
| 20260902230624 | 91 | 305 | 4.0 | 10.0 | 0.00 | 0.00 | 0.00 | 51 | 1013.0 |
| 20260902230403 | 91 | 304 | 3.0 | 10.0 | 0.00 | 0.00 | 0.00 | 50 | 1013.0 |
| 20260902230203 | 92 | 303 | 4.0 | 7.0 | 0.00 | 0.00 | 0.00 | 51 | 1013.0 |
| 20260902230003 | 92 | 303 | 4.0 | 7.0 | 0.00 | 0.00 | 0.00 | 50 | 1013.1 |
| 20260902225803 | 92 | 302 | 4.0 | 7.0 | 0.00 | 0.00 | 0.00 | 50 | 1013.0 |
| 20260902225603 | 92 | 304 | 4.0 | 8.0 | 0.00 | 0.00 | 0.00 | 50 | 1013.0 |
| 20260902225424 | 92 | 304 | 4.0 | 8.0 | 0.00 | 0.00 | 0.00 | 50 | 1013.0 |
| 20260902225203 | 92 | 305 | 4.0 | 8.0 | 0.00 | 0.00 | 0.00 | 49 | 1013.0 |
| 20260902225024 | 92 | 305 | 4.0 | 8.0 | 0.00 | 0.00 | 0.00 | 49 | 1013.0 |
| 20260902224824 | 92 | 305 | 4.0 | 8.0 | 0.00 | 0.00 | 0.00 | 48 | 1013.0 |
| 20260902224604 | 93 | 304 | 4.0 | 7.0 | 0.00 | 0.00 | 0.00 | 48 | 1013.0 |
| 20260902224403 | 93 | 304 | 5.0 | 7.0 | 0.00 | 0.00 | 0.00 | 47 | 1013.1 |
| 20260902224203 | 93 | 304 | 5.0 | 9.0 | 0.00 | 0.00 | 0.00 | 47 | 1013.1 |
| 20260902224003 | 93 | 303 | 5.0 | 9.0 | 0.00 | 0.00 | 0.00 | 46 | 1013.0 |
| 20260902223804 | 93 | 302 | 5.0 | 9.0 | 0.00 | 0.00 | 0.00 | 46 | 1013.0 |
| 20260902223603 | 93 | 301 | 5.0 | 9.0 | 0.00 | 0.00 | 0.00 | 46 | 1013.0 |
| 20260902223403 | 93 | 303 | 5.0 | 9.0 | 0.00 | 0.00 | 0.00 | 46 | 1013.0 |
| 20260902223203 | 93 | 304 | 5.0 | 8.0 | 0.00 | 0.00 | 0.00 | 47 | 1013.0 |
| 20260902223025 | 93 | 305 | 5.0 | 8.0 | 0.00 | 0.00 | 0.00 | 46 | 1013.0 |
| 20260902222803 | 93 | 308 | 5.0 | 8.0 | 0.00 | 0.00 | 0.00 | 46 | 1013.0 |
| 20260902222624 | 93 | 309 | 5.0 | 9.0 | 0.00 | 0.00 | 0.00 | 45 | 1013.0 |
| 20260902222404 | 93 | 309 | 5.0 | 9.0 | 0.00 | 0.00 | 0.00 | 45 | 1013.0 |
| 20260902222203 | 93 | 309 | 5.0 | 10.0 | 0.00 | 0.00 | 0.00 | 46 | 1013.1 |
| 20260902222003 | 93 | 309 | 5.0 | 10.0 | 0.00 | 0.00 | 0.00 | 46 | 1013.1 |
| 20260902221803 | 94 | 309 | 5.0 | 10.0 | 0.00 | 0.00 | 0.00 | 45 | 1013.1 |
| 20260902221603 | 93 | 308 | 5.0 | 10.0 | 0.00 | 0.00 | 0.00 | 45 | 1013.1 |
| 20260902221403 | 94 | 308 | 5.0 | 10.0 | 0.00 | 0.00 | 0.00 | 46 | 1013.1 |
| 20260902221203 | 94 | 306 | 5.0 | 9.0 | 0.00 | 0.00 | 0.00 | 46 | 1013.1 |
| 20260902221024 | 94 | 305 | 5.0 | 9.0 | 0.00 | 0.00 | 0.00 | 45 | 1013.2 |
| 20260902220803 | 94 | 305 | 5.0 | 9.0 | 0.00 | 0.00 | 0.00 | 44 | 1013.1 |
| 20260902220603 | 94 | 305 | 5.0 | 9.0 | 0.00 | 0.00 | 0.00 | 44 | 1013.1 |
| 20260902220403 | 94 | 305 | 6.0 | 9.0 | 0.00 | 0.00 | 0.00 | 43 | 1013.1 |
| 20260902220203 | 94 | 307 | 6.0 | 9.0 | 0.00 | 0.00 | 0.00 | 44 | 1013.1 |
| 20260902220003 | 94 | 307 | 6.0 | 11.0 | 0.00 | 0.00 | 0.00 | 45 | 1013.1 |
| 20260902215803 | 94 | 306 | 6.0 | 11.0 | 0.00 | 0.00 | 0.00 | 44 | 1013.1 |
| 20260902215603 | 94 | 305 | 5.0 | 11.0 | 0.00 | 0.00 | 0.00 | 42 | 1013.1 |
| 20260902215403 | 94 | 306 | 5.0 | 11.0 | 0.00 | 0.00 | 0.00 | 42 | 1013.2 |
| 20260902215203 | 94 | 303 | 5.0 | 11.0 | 0.00 | 0.00 | 0.00 | 41 | 1013.1 |
| 20260902215003 | 94 | 301 | 5.0 | 8.0 | 0.00 | 0.00 | 0.00 | 43 | 1013.1 |
| 20260902214824 | 94 | 302 | 5.0 | 8.0 | 0.00 | 0.00 | 0.00 | 44 | 1013.2 |
| 20260902214624 | 94 | 302 | 5.0 | 11.0 | 0.00 | 0.00 | 0.00 | 44 | 1013.1 |
| 20260902214403 | 95 | 300 | 5.0 | 11.0 | 0.00 | 0.00 | 0.00 | 45 | 1013.1 |
| 20260902214203 | 94 | 303 | 5.0 | 11.0 | 0.00 | 0.00 | 0.00 | 43 | 1013.2 |
| 20260902214003 | 94 | 306 | 5.0 | 11.0 | 0.00 | 0.00 | 0.00 | 43 | 1013.2 |
| 20260902213824 | 94 | 307 | 5.0 | 11.0 | 0.00 | 0.00 | 0.00 | 43 | 1013.2 |
| 20260902213603 | 94 | 312 | 5.0 | 9.0 | 0.00 | 0.00 | 0.00 | 42 | 1013.3 |
| 20260902213403 | 94 | 316 | 6.0 | 9.0 | 0.00 | 0.00 | 0.00 | 44 | 1013.3 |
| 20260902213203 | 94 | 313 | 6.0 | 10.0 | 0.00 | 0.00 | 0.00 | 41 | 1013.3 |
| 20260902213024 | 94 | 312 | 7.0 | 10.0 | 0.00 | 0.00 | 0.00 | 41 | 1013.3 |
| 20260902212803 | 94 | 311 | 6.0 | 10.0 | 0.00 | 0.00 | 0.00 | 42 | 1013.4 |
| 20260902212603 | 94 | 310 | 6.0 | 10.0 | 0.00 | 0.00 | 0.00 | 40 | 1013.3 |
| 20260902212403 | 94 | 305 | 6.0 | 10.0 | 0.00 | 0.00 | 0.00 | 41 | 1013.4 |
| 20260902212203 | 94 | 306 | 6.0 | 10.0 | 0.00 | 0.00 | 0.00 | 42 | 1013.4 |
| 20260902212003 | 94 | 305 | 6.0 | 10.0 | 0.00 | 0.00 | 0.00 | 43 | 1013.4 |
| 20260902211824 | 94 | 307 | 7.0 | 11.0 | 0.00 | 0.00 | 0.00 | 43 | 1013.4 |
| 20260902211603 | 94 | 308 | 7.0 | 12.0 | 0.00 | 0.00 | 0.00 | 42 | 1013.4 |
| 20260902211403 | 94 | 310 | 7.0 | 12.0 | 0.00 | 0.00 | 0.00 | 42 | 1013.4 |
| 20260902211204 | 94 | 311 | 6.0 | 12.0 | 0.00 | 0.00 | 0.00 | 43 | 1013.4 |
| 20260902211003 | 94 | 312 | 6.0 | 12.0 | 0.00 | 0.00 | 0.00 | 43 | 1013.3 |
| 20260902210803 | 94 | 306 | 6.0 | 12.0 | 0.00 | 0.00 | 0.00 | 40 | 1013.4 |
| 20260902210603 | 94 | 304 | 6.0 | 11.0 | 0.00 | 0.00 | 0.00 | 41 | 1013.5 |
| 20260902210424 | 95 | 304 | 6.0 | 11.0 | 0.00 | 0.00 | 0.00 | 41 | 1013.5 |
| 20260902210203 | 95 | 304 | 6.0 | 10.0 | 0.00 | 0.00 | 0.00 | 42 | 1013.5 |
| 20260902210024 | 95 | 306 | 6.0 | 10.0 | 0.00 | 0.00 | 0.00 | 40 | 1013.5 |
| 20260902205803 | 95 | 305 | 6.0 | 10.0 | 0.00 | 0.00 | 0.00 | 42 | 1013.5 |
| 20260902205624 | 94 | 306 | 6.0 | 10.0 | 0.00 | 0.00 | 0.00 | 42 | 1013.5 |
| 20260902205403 | 94 | 307 | 6.0 | 10.0 | 0.00 | 0.00 | 0.00 | 44 | 1013.6 |
| 20260902205203 | 94 | 309 | 5.0 | 10.0 | 0.00 | 0.00 | 0.00 | 43 | 1013.6 |
| 20260902205003 | 94 | 306 | 5.0 | 10.0 | 0.00 | 0.00 | 0.00 | 43 | 1013.6 |
| 20260902204824 | 94 | 307 | 5.0 | 10.0 | 0.00 | 0.01 | 0.00 | 42 | 1013.6 |
| 20260902204603 | 94 | 310 | 5.0 | 10.0 | 0.00 | 0.01 | 0.00 | 44 | 1013.6 |
| 20260902204403 | 94 | 311 | 5.0 | 10.0 | 0.00 | 0.01 | 0.00 | 43 | 1013.7 |
| 20260902204203 | 94 | 308 | 5.0 | 10.0 | 0.00 | 0.01 | 0.00 | 42 | 1013.8 |
| 20260902204003 | 94 | 310 | 5.0 | 9.0 | 0.00 | 0.02 | 0.00 | 42 | 1013.7 |
| 20260902203803 | 94 | 313 | 4.0 | 8.0 | 0.00 | 0.03 | 0.00 | 45 | 1013.7 |
| 20260902203603 | 94 | 312 | 5.0 | 10.0 | 0.00 | 0.04 | 0.00 | 43 | 1013.8 |
| 20260902203403 | 94 | 311 | 5.0 | 11.0 | 0.00 | 0.04 | 0.00 | 44 | 1013.8 |
| 20260902203224 | 94 | 311 | 5.0 | 11.0 | 0.00 | 0.05 | 0.00 | 45 | 1013.8 |
| 20260902203003 | 94 | 310 | 5.0 | 11.0 | 0.00 | 0.05 | 0.00 | 45 | 1013.8 |
| 20260902202803 | 94 | 310 | 5.0 | 11.0 | 0.00 | 0.05 | 0.00 | 42 | 1013.9 |
| 20260902202603 | 94 | 310 | 5.0 | 11.0 | 0.00 | 0.05 | 0.00 | 43 | 1014.0 |
| 20260902202403 | 94 | 310 | 5.0 | 10.0 | 0.00 | 0.05 | 0.00 | 44 | 1014.0 |
| 20260902202203 | 94 | 310 | 5.0 | 10.0 | 0.00 | 0.05 | 0.00 | 42 | 1014.0 |
| 20260902202003 | 94 | 309 | 5.0 | 10.0 | 0.00 | 0.05 | 0.00 | 42 | 1014.1 |
| 20260902201824 | 94 | 309 | 5.0 | 10.0 | 0.00 | 0.05 | 0.00 | 42 | 1014.1 |
| 20260902201603 | 94 | 308 | 5.0 | 9.0 | 0.00 | 0.05 | 0.00 | 45 | 1014.1 |
| 20260902201424 | 94 | 307 | 4.0 | 9.0 | 0.00 | 0.05 | 0.00 | 44 | 1014.0 |
| 20260902201203 | 94 | 309 | 4.0 | 9.0 | 0.00 | 0.05 | 0.00 | 43 | 1014.1 |
| 20260902201003 | 94 | 309 | 3.0 | 9.0 | 0.00 | 0.05 | 0.00 | 42 | 1014.1 |
| 20260902200803 | 94 | 309 | 3.0 | 8.0 | 0.00 | 0.05 | 0.00 | 45 | 1014.2 |
| 20260902200603 | 94 | 309 | 2.0 | 9.0 | 0.00 | 0.05 | 0.00 | 44 | 1014.2 |
| 20260902200403 | 94 | 311 | 2.0 | 9.0 | 0.00 | 0.05 | 0.00 | 43 | 1014.2 |
| 20260902200203 | 93 | 311 | 2.0 | 9.0 | 0.00 | 0.05 | 0.00 | 43 | 1014.3 |
| 20260902200003 | 93 | 321 | 2.0 | 9.0 | 0.00 | 0.05 | 0.00 | 42 | 1014.3 |
| 20260902195803 | 93 | 332 | 2.0 | 9.0 | 0.00 | 0.05 | 0.00 | 43 | 1014.4 |
| 20260902195603 | 93 | 335 | 3.0 | 8.0 | 0.00 | 0.05 | 0.00 | 45 | 1014.5 |
| 20260902195403 | 93 | 333 | 3.0 | 8.0 | 0.00 | 0.05 | 0.00 | 43 | 1014.6 |
| 20260902195203 | 93 | 331 | 4.0 | 8.0 | 0.00 | 0.05 | 0.00 | 44 | 1014.5 |
| 20260902195003 | 93 | 324 | 4.0 | 10.0 | 0.00 | 0.05 | 0.00 | 44 | 1014.6 |
| 20260902194803 | 93 | 321 | 4.0 | 10.0 | 0.00 | 0.05 | 0.00 | 43 | 1014.6 |
| 20260902194603 | 93 | 319 | 3.0 | 10.0 | 0.00 | 0.05 | 0.00 | 43 | 1014.6 |
| 20260902194403 | 93 | 316 | 3.0 | 10.0 | 0.00 | 0.05 | 0.00 | 45 | 1014.7 |
| 20260902194203 | 93 | 318 | 3.0 | 10.0 | 0.00 | 0.05 | 0.00 | 44 | 1014.7 |
| 20260902194003 | 93 | 324 | 3.0 | 10.0 | 0.00 | 0.06 | 0.00 | 43 | 1014.7 |
| 20260902193803 | 93 | 325 | 3.0 | 10.0 | 0.00 | 0.06 | 0.00 | 44 | 1014.7 |
| 20260902193603 | 93 | 330 | 3.0 | 10.0 | 0.00 | 0.06 | 0.00 | 46 | 1014.7 |
| 20260902193403 | 93 | 334 | 3.0 | 10.0 | 0.00 | 0.06 | 0.00 | 44 | 1014.8 |
| 20260902193225 | 93 | 343 | 2.0 | 10.0 | 0.00 | 0.06 | 0.00 | 45 | 1014.7 |
| 20260902193003 | 93 | 352 | 2.0 | 8.0 | 0.00 | 0.06 | 0.00 | 46 | 1014.8 |
| 20260902192824 | 92 | 358 | 2.0 | 6.0 | 0.00 | 0.06 | 0.00 | 45 | 1014.8 |
| 20260902192603 | 92 | 1 | 3.0 | 6.0 | 0.00 | 0.06 | 0.00 | 47 | 1014.8 |
| 20260902192403 | 92 | 4 | 3.0 | 6.0 | 0.00 | 0.06 | 0.00 | 49 | 1014.8 |
| 20260902192203 | 92 | 3 | 4.0 | 7.0 | 0.00 | 0.06 | 0.00 | 48 | 1014.9 |
| 20260902192024 | 92 | 3 | 4.0 | 7.0 | 0.00 | 0.06 | 0.00 | 47 | 1015.0 |
| 20260902191803 | 92 | 5 | 4.0 | 7.0 | 0.00 | 0.06 | 0.00 | 49 | 1015.0 |
| 20260902191603 | 92 | 5 | 4.0 | 7.0 | 0.00 | 0.06 | 0.00 | 47 | 1015.0 |
| 20260902191403 | 92 | 3 | 4.0 | 7.0 | 0.00 | 0.06 | 0.00 | 48 | 1014.9 |
| 20260902191203 | 92 | 8 | 4.0 | 8.0 | 0.00 | 0.06 | 0.00 | 49 | 1015.0 |
| 20260902191003 | 92 | 9 | 4.0 | 8.0 | 0.00 | 0.06 | 0.00 | 49 | 1015.0 |
| 20260902190803 | 91 | 5 | 4.0 | 8.0 | 0.00 | 0.06 | 0.00 | 49 | 1015.0 |
| 20260902190603 | 91 | 4 | 4.0 | 9.0 | 0.00 | 0.06 | 0.00 | 48 | 1015.0 |
| 20260902190403 | 92 | 4 | 4.0 | 9.0 | 0.00 | 0.06 | 0.00 | 48 | 1015.0 |
| 20260902190203 | 92 | 3 | 4.0 | 9.0 | 0.00 | 0.06 | 0.00 | 49 | 1015.0 |
| 20260902190003 | 92 | 355 | 4.0 | 9.0 | 0.00 | 0.06 | 0.00 | 45 | 1015.1 |
| 20260902185803 | 92 | 353 | 4.0 | 9.0 | 0.00 | 0.06 | 0.00 | 47 | 1015.1 |
| 20260902185624 | 92 | 352 | 3.0 | 8.0 | 0.00 | 0.06 | 0.00 | 46 | 1015.1 |
| 20260902185403 | 92 | 348 | 3.0 | 8.0 | 0.00 | 0.06 | 0.00 | 47 | 1015.1 |
| 20260902185204 | 92 | 340 | 3.0 | 8.0 | 0.00 | 0.06 | 0.00 | 46 | 1015.1 |
| 20260902185003 | 92 | 343 | 4.0 | 13.0 | 0.00 | 0.06 | 0.00 | 45 | 1015.2 |
| 20260902184824 | 92 | 344 | 4.0 | 13.0 | 0.00 | 0.06 | 0.00 | 46 | 1015.1 |
| 20260902184603 | 92 | 338 | 4.0 | 13.0 | 0.00 | 0.06 | 0.00 | 46 | 1015.1 |
| 20260902184424 | 92 | 333 | 5.0 | 13.0 | 0.00 | 0.06 | 0.00 | 46 | 1015.0 |
| 20260902184203 | 92 | 331 | 4.0 | 13.0 | 0.00 | 0.06 | 0.00 | 42 | 1015.0 |
| 20260902184003 | 93 | 326 | 4.0 | 8.0 | 0.00 | 0.06 | 0.00 | 44 | 1015.0 |
| 20260902183803 | 93 | 322 | 4.0 | 8.0 | 0.00 | 0.06 | 0.00 | 44 | 1015.0 |
| 20260902183603 | 93 | 319 | 3.0 | 8.0 | 0.00 | 0.06 | 0.00 | 45 | 1015.0 |
| 20260902183403 | 93 | 320 | 3.0 | 7.0 | 0.00 | 0.06 | 0.00 | 45 | 1015.0 |
| 20260902183203 | 92 | 319 | 3.0 | 7.0 | 0.00 | 0.06 | 0.00 | 46 | 1015.0 |
| 20260902183003 | 92 | 326 | 3.0 | 7.0 | 0.00 | 0.06 | 0.00 | 45 | 1015.0 |
| 20260902182803 | 92 | 340 | 3.0 | 6.0 | 0.00 | 0.06 | 0.00 | 48 | 1015.0 |
| 20260902182624 | 92 | 345 | 3.0 | 6.0 | 0.00 | 0.06 | 0.00 | 48 | 1015.0 |
| 20260902182403 | 91 | 346 | 3.0 | 7.0 | 0.00 | 0.06 | 0.00 | 45 | 1015.0 |
| 20260902182224 | 91 | 340 | 3.0 | 8.0 | 0.00 | 0.06 | 0.00 | 46 | 1015.1 |
| 20260902182004 | 91 | 337 | 3.0 | 8.0 | 0.00 | 0.06 | 0.00 | 47 | 1015.1 |
| 20260902181803 | 91 | 331 | 3.0 | 8.0 | 0.00 | 0.06 | 0.00 | 46 | 1015.1 |
| 20260902181603 | 91 | 322 | 3.0 | 8.0 | 0.00 | 0.06 | 0.00 | 45 | 1015.1 |
| 20260902181403 | 91 | 318 | 3.0 | 8.0 | 0.00 | 0.06 | 0.00 | 45 | 1015.1 |
| 20260902181224 | 92 | 322 | 2.0 | 7.0 | 0.00 | 0.06 | 0.00 | 45 | 1015.1 |
| 20260902181003 | 92 | 318 | 2.0 | 7.0 | 0.00 | 0.06 | 0.00 | 45 | 1015.1 |
| 20260902180803 | 92 | 314 | 2.0 | 7.0 | 0.00 | 0.06 | 0.00 | 48 | 1015.1 |
| 20260902180603 | 91 | 317 | 2.0 | 7.0 | 0.00 | 0.06 | 0.00 | 47 | 1015.1 |
| 20260902180403 | 91 | 312 | 3.0 | 7.0 | 0.00 | 0.06 | 0.00 | 47 | 1015.1 |
| 20260902180203 | 91 | 310 | 3.0 | 7.0 | 0.00 | 0.06 | 0.00 | 45 | 1015.1 |
| 20260902180024 | 91 | 311 | 3.0 | 7.0 | 0.00 | 0.06 | 0.00 | 47 | 1015.1 |
| 20260902175824 | 91 | 314 | 3.0 | 7.0 | 0.00 | 0.06 | 0.00 | 49 | 1015.1 |
| 20260902175624 | 91 | 315 | 4.0 | 7.0 | 0.00 | 0.06 | 0.00 | 47 | 1015.1 |
| 20260902175403 | 91 | 324 | 3.0 | 7.0 | 0.00 | 0.06 | 0.00 | 45 | 1015.2 |
| 20260902175203 | 91 | 327 | 4.0 | 7.0 | 0.00 | 0.06 | 0.00 | 47 | 1015.2 |
| 20260902175003 | 91 | 329 | 3.0 | 7.0 | 0.00 | 0.06 | 0.00 | 47 | 1015.2 |
| 20260902174803 | 91 | 321 | 3.0 | 7.0 | 0.00 | 0.06 | 0.00 | 46 | 1015.3 |